Wetterdaten: Mittwoch, 30.03.2022
Datum Zeit Temp. Aussen Temp. o. S. Temp +5cm Feuchte Auss Luftdruck Regen Sonnenschein Regendauer Solar Windben Empfang
30.03.2022 00:00 9,4 C 8,9 C 5,6 C 74 % 1008,2 hPa 0,0 l/m 0 min 0 min 0 W/m 6,4 km/h (2 Bft) 97,87 %
30.03.2022 00:02 9,4 C 8,9 C 5,0 C 74 % 1008,2 hPa 0,0 l/m 0 min 0 min 0 W/m 9,7 km/h (2 Bft) 97,50 %
30.03.2022 00:04 9,4 C 8,9 C 5,0 C 74 % 1008,1 hPa 0,0 l/m 0 min 0 min 0 W/m 9,7 km/h (2 Bft) 95,74 %
30.03.2022 00:08 9,4 C 8,9 C 5,0 C 74 % 1008,2 hPa 0,0 l/m 0 min 0 min 0 W/m 12,9 km/h (3 Bft) 97,87 %
30.03.2022 00:10 9,4 C 8,9 C 5,0 C 74 % 1008,2 hPa 0,0 l/m 0 min 0 min 0 W/m 9,7 km/h (2 Bft) 97,87 %
30.03.2022 00:12 9,4 C 8,9 C 5,0 C 74 % 1008,1 hPa 0,0 l/m 0 min 0 min 0 W/m 9,7 km/h (2 Bft) 97,87 %
30.03.2022 00:14 9,4 C 8,9 C 5,0 C 74 % 1008,2 hPa 0,0 l/m 0 min 0 min 0 W/m 9,7 km/h (2 Bft) 95,65 %
30.03.2022 00:16 9,4 C 8,9 C 5,0 C 73 % 1008,2 hPa 0,0 l/m 0 min 0 min 0 W/m 6,4 km/h (2 Bft) 95,74 %
30.03.2022 00:18 9,4 C 8,9 C 5,0 C 73 % 1008,1 hPa 0,0 l/m 0 min 0 min 0 W/m 12,9 km/h (3 Bft) 95,74 %
30.03.2022 00:20 9,4 C 8,9 C 5,0 C 73 % 1008,1 hPa 0,0 l/m 0 min 0 min 0 W/m 9,7 km/h (2 Bft) 95,74 %
30.03.2022 00:22 9,4 C 8,9 C 5,0 C 73 % 1008,1 hPa 0,0 l/m 0 min 0 min 0 W/m 9,7 km/h (2 Bft) 95,74 %
30.03.2022 00:24 9,4 C 8,9 C 5,0 C 73 % 1008,1 hPa 0,0 l/m 0 min 0 min 0 W/m 6,4 km/h (2 Bft) 95,74 %
30.03.2022 00:26 9,4 C 8,9 C 5,0 C 73 % 1008,1 hPa 0,0 l/m 0 min 0 min 0 W/m 16,1 km/h (3 Bft) 95,65 %
30.03.2022 00:28 9,3 C 8,9 C 5,0 C 74 % 1008,1 hPa 0,0 l/m 0 min 0 min 0 W/m 6,4 km/h (2 Bft) 95,74 %
30.03.2022 00:30 9,3 C 8,9 C 5,0 C 74 % 1008,0 hPa 0,0 l/m 0 min 0 min 0 W/m 19,3 km/h (3 Bft) 100,00 %
30.03.2022 00:32 9,3 C 8,3 C 5,0 C 74 % 1008,1 hPa 0,0 l/m 0 min 0 min 0 W/m 9,7 km/h (2 Bft) 97,87 %
30.03.2022 00:34 9,3 C 8,3 C 5,0 C 74 % 1008,1 hPa 0,0 l/m 0 min 0 min 0 W/m 12,9 km/h (3 Bft) 97,87 %
30.03.2022 00:36 9,3 C 8,3 C 5,0 C 74 % 1008,0 hPa 0,0 l/m 0 min 0 min 0 W/m 9,7 km/h (2 Bft) 95,74 %
30.03.2022 00:38 9,3 C 8,3 C 5,0 C 74 % 1008,0 hPa 0,0 l/m 0 min 0 min 0 W/m 9,7 km/h (2 Bft) 95,65 %
30.03.2022 00:40 9,2 C 8,3 C 5,0 C 74 % 1008,0 hPa 0,0 l/m 0 min 0 min 0 W/m 6,4 km/h (2 Bft) 97,87 %
30.03.2022 00:42 9,2 C 8,3 C 5,0 C 74 % 1008,1 hPa 0,0 l/m 0 min 0 min 0 W/m 12,9 km/h (3 Bft) 97,87 %
30.03.2022 00:44 9,2 C 8,3 C 5,0 C 74 % 1008,1 hPa 0,0 l/m 0 min 0 min 0 W/m 9,7 km/h (2 Bft) 95,74 %
30.03.2022 00:46 9,2 C 8,3 C 5,0 C 74 % 1008,1 hPa 0,0 l/m 0 min 0 min 0 W/m 9,7 km/h (2 Bft) 97,87 %
30.03.2022 00:48 9,2 C 8,3 C 5,0 C 74 % 1008,1 hPa 0,0 l/m 0 min 0 min 0 W/m 9,7 km/h (2 Bft) 97,87 %
30.03.2022 00:50 9,2 C 8,3 C 5,0 C 74 % 1008,1 hPa 0,0 l/m 0 min 0 min 0 W/m 12,9 km/h (3 Bft) 97,83 %
30.03.2022 00:52 9,2 C 8,3 C 5,0 C 74 % 1008,0 hPa 0,0 l/m 0 min 0 min 0 W/m 9,7 km/h (2 Bft) 97,87 %
30.03.2022 00:54 9,2 C 8,3 C 5,0 C 74 % 1008,0 hPa 0,0 l/m 0 min 0 min 0 W/m 6,4 km/h (2 Bft) 100,00 %
30.03.2022 00:56 9,2 C 8,3 C 5,0 C 74 % 1008,0 hPa 0,0 l/m 0 min 0 min 0 W/m 9,7 km/h (2 Bft) 100,00 %
30.03.2022 00:58 9,1 C 8,3 C 5,0 C 74 % 1007,9 hPa 0,0 l/m 0 min 0 min 0 W/m 12,9 km/h (3 Bft) 100,00 %
30.03.2022 01:00 9,1 C 8,3 C 5,0 C 74 % 1008,0 hPa 0,0 l/m 0 min 0 min 0 W/m 6,4 km/h (2 Bft) 100,00 %
30.03.2022 01:02 9,1 C 8,3 C 5,0 C 74 % 1007,9 hPa 0,0 l/m 0 min 0 min 0 W/m 9,7 km/h (2 Bft) 100,00 %
30.03.2022 01:04 9,1 C 8,3 C 5,0 C 75 % 1007,9 hPa 0,0 l/m 0 min 0 min 0 W/m 6,4 km/h (2 Bft) 100,00 %
30.03.2022 01:06 9,1 C 8,3 C 5,0 C 75 % 1007,9 hPa 0,0 l/m 0 min 0 min 0 W/m 9,7 km/h (2 Bft) 97,87 %
30.03.2022 01:08 9,1 C 8,3 C 5,0 C 75 % 1007,9 hPa 0,0 l/m 0 min 0 min 0 W/m 6,4 km/h (2 Bft) 100,00 %
30.03.2022 01:10 9,1 C 8,3 C 4,4 C 75 % 1007,8 hPa 0,0 l/m 0 min 0 min 0 W/m 6,4 km/h (2 Bft) 100,00 %
30.03.2022 01:12 9,0 C 8,3 C 4,4 C 75 % 1007,7 hPa 0,0 l/m 0 min 0 min 0 W/m 9,7 km/h (2 Bft) 100,00 %
30.03.2022 01:14 9,0 C 8,3 C 4,4 C 75 % 1007,7 hPa 0,0 l/m 0 min 0 min 0 W/m 6,4 km/h (2 Bft) 97,83 %
30.03.2022 01:16 8,9 C 8,3 C 4,4 C 75 % 1007,7 hPa 0,0 l/m 0 min 0 min 0 W/m 9,7 km/h (2 Bft) 100,00 %
30.03.2022 01:18 8,9 C 8,3 C 4,4 C 75 % 1007,7 hPa 0,0 l/m 0 min 0 min 0 W/m 6,4 km/h (2 Bft) 100,00 %
30.03.2022 01:20 8,9 C 8,3 C 4,4 C 75 % 1007,6 hPa 0,0 l/m 0 min 0 min 0 W/m 9,7 km/h (2 Bft) 100,00 %
30.03.2022 01:22 8,9 C 8,3 C 4,4 C 75 % 1007,7 hPa 0,0 l/m 0 min 0 min 0 W/m 6,4 km/h (2 Bft) 97,87 %
30.03.2022 01:24 8,9 C 7,8 C 4,4 C 75 % 1007,7 hPa 0,0 l/m 0 min 0 min 0 W/m 6,4 km/h (2 Bft) 100,00 %
30.03.2022 01:26 8,8 C 7,8 C 4,4 C 76 % 1007,7 hPa 0,0 l/m 0 min 0 min 0 W/m 6,4 km/h (2 Bft) 97,83 %
30.03.2022 01:28 8,8 C 7,8 C 4,4 C 76 % 1007,7 hPa 0,0 l/m 0 min 0 min 0 W/m 6,4 km/h (2 Bft) 100,00 %
30.03.2022 01:30 8,8 C 7,8 C 4,4 C 76 % 1007,8 hPa 0,0 l/m 0 min 0 min 0 W/m 6,4 km/h (2 Bft) 100,00 %
30.03.2022 01:32 8,8 C 7,8 C 4,4 C 76 % 1007,7 hPa 0,0 l/m 0 min 0 min 0 W/m 3,2 km/h (1 Bft) 100,00 %
30.03.2022 01:34 8,8 C 7,8 C 4,4 C 76 % 1007,7 hPa 0,0 l/m 0 min 0 min 0 W/m 6,4 km/h (2 Bft) 100,00 %
30.03.2022 01:36 8,8 C 7,8 C 4,4 C 76 % 1007,7 hPa 0,0 l/m 0 min 0 min 0 W/m 3,2 km/h (1 Bft) 100,00 %
30.03.2022 01:38 8,8 C 7,8 C 4,4 C 76 % 1007,7 hPa 0,0 l/m 0 min 0 min 0 W/m 6,4 km/h (2 Bft) 100,00 %
30.03.2022 01:40 8,7 C 7,8 C 4,4 C 76 % 1007,6 hPa 0,0 l/m 0 min 0 min 0 W/m 6,4 km/h (2 Bft) 100,00 %
30.03.2022 01:42 8,7 C 7,8 C 4,4 C 76 % 1007,6 hPa 0,0 l/m 0 min 0 min 0 W/m 9,7 km/h (2 Bft) 100,00 %
30.03.2022 01:44 8,7 C 7,8 C 4,4 C 76 % 1007,6 hPa 0,0 l/m 0 min 0 min 0 W/m 6,4 km/h (2 Bft) 97,87 %
30.03.2022 01:46 8,6 C 7,8 C 4,4 C 76 % 1007,6 hPa 0,0 l/m 0 min 0 min 0 W/m 9,7 km/h (2 Bft) 97,87 %
30.03.2022 01:48 8,6 C 7,8 C 4,4 C 76 % 1007,6 hPa 0,0 l/m 0 min 0 min 0 W/m 6,4 km/h (2 Bft) 95,65 %
30.03.2022 01:50 8,6 C 7,8 C 4,4 C 76 % 1007,6 hPa 0,0 l/m 0 min 0 min 0 W/m 6,4 km/h (2 Bft) 93,62 %
30.03.2022 01:52 8,6 C 7,8 C 4,4 C 76 % 1007,6 hPa 0,0 l/m 0 min 0 min 0 W/m 3,2 km/h (1 Bft) 97,87 %
30.03.2022 01:54 8,6 C 7,8 C 4,4 C 76 % 1007,6 hPa 0,0 l/m 0 min 0 min 0 W/m 9,7 km/h (2 Bft) 95,74 %
30.03.2022 01:56 8,6 C 7,8 C 4,4 C 76 % 1007,6 hPa 0,0 l/m 0 min 0 min 0 W/m 9,7 km/h (2 Bft) 93,62 %
30.03.2022 01:58 8,6 C 7,8 C 4,4 C 76 % 1007,6 hPa 0,0 l/m 0 min 0 min 0 W/m 6,4 km/h (2 Bft) 95,74 %
30.03.2022 02:00 8,6 C 7,8 C 4,4 C 76 % 1007,5 hPa 0,0 l/m 0 min 0 min 0 W/m 6,4 km/h (2 Bft) 93,48 %
30.03.2022 02:02 8,6 C 7,8 C 4,4 C 76 % 1007,4 hPa 0,0 l/m 0 min 0 min 0 W/m 6,4 km/h (2 Bft) 95,74 %
30.03.2022 02:04 8,6 C 7,8 C 4,4 C 77 % 1007,5 hPa 0,0 l/m 0 min 0 min 0 W/m 6,4 km/h (2 Bft) 95,74 %
30.03.2022 02:06 8,6 C 7,8 C 4,4 C 77 % 1007,4 hPa 0,0 l/m 0 min 0 min 0 W/m 6,4 km/h (2 Bft) 93,62 %
30.03.2022 02:08 8,6 C 7,8 C 4,4 C 77 % 1007,4 hPa 0,0 l/m 0 min 0 min 0 W/m 3,2 km/h (1 Bft) 95,74 %
30.03.2022 02:10 8,6 C 7,8 C 4,4 C 77 % 1007,4 hPa 0,0 l/m 0 min 0 min 0 W/m 6,4 km/h (2 Bft) 95,74 %
30.03.2022 02:12 8,6 C 7,8 C 4,4 C 77 % 1007,3 hPa 0,0 l/m 0 min 0 min 0 W/m 6,4 km/h (2 Bft) 95,65 %
30.03.2022 02:14 8,5 C 7,8 C 4,4 C 77 % 1007,4 hPa 0,0 l/m 0 min 0 min 0 W/m 3,2 km/h (1 Bft) 93,62 %
30.03.2022 02:16 8,5 C 7,8 C 4,4 C 77 % 1007,3 hPa 0,0 l/m 0 min 0 min 0 W/m 3,2 km/h (1 Bft) 95,74 %
30.03.2022 02:18 8,4 C 7,8 C 4,4 C 77 % 1007,4 hPa 0,0 l/m 0 min 0 min 0 W/m 3,2 km/h (1 Bft) 100,00 %
30.03.2022 02:20 8,4 C 7,8 C 4,4 C 77 % 1007,3 hPa 0,0 l/m 0 min 0 min 0 W/m 3,2 km/h (1 Bft) 97,87 %
30.03.2022 02:22 8,4 C 7,8 C 4,4 C 77 % 1007,3 hPa 0,0 l/m 0 min 0 min 0 W/m 3,2 km/h (1 Bft) 93,62 %
30.03.2022 02:24 8,4 C 7,8 C 4,4 C 77 % 1007,4 hPa 0,0 l/m 0 min 0 min 0 W/m 6,4 km/h (2 Bft) 95,65 %
30.03.2022 02:26 8,4 C 7,8 C 4,4 C 77 % 1007,3 hPa 0,0 l/m 0 min 0 min 0 W/m 6,4 km/h (2 Bft) 97,87 %
30.03.2022 02:28 8,4 C 7,8 C 4,4 C 77 % 1007,3 hPa 0,0 l/m 0 min 0 min 0 W/m 6,4 km/h (2 Bft) 97,87 %
30.03.2022 02:30 8,4 C 7,8 C 4,4 C 78 % 1007,3 hPa 0,0 l/m 0 min 0 min 0 W/m 6,4 km/h (2 Bft) 97,87 %
30.03.2022 02:32 8,4 C 7,8 C 4,4 C 78 % 1007,3 hPa 0,0 l/m 0 min 0 min 0 W/m 6,4 km/h (2 Bft) 93,62 %
30.03.2022 02:34 8,4 C 7,8 C 4,4 C 77 % 1007,3 hPa 0,0 l/m 0 min 0 min 0 W/m 6,4 km/h (2 Bft) 95,74 %
30.03.2022 02:36 8,4 C 7,8 C 4,4 C 77 % 1007,3 hPa 0,0 l/m 0 min 0 min 0 W/m 6,4 km/h (2 Bft) 95,65 %
30.03.2022 02:38 8,4 C 7,8 C 4,4 C 77 % 1007,2 hPa 0,0 l/m 0 min 0 min 0 W/m 6,4 km/h (2 Bft) 95,74 %
30.03.2022 02:40 8,3 C 7,8 C 4,4 C 77 % 1007,2 hPa 0,0 l/m 0 min 0 min 0 W/m 9,7 km/h (2 Bft) 95,74 %
30.03.2022 02:42 8,3 C 7,8 C 4,4 C 77 % 1007,2 hPa 0,0 l/m 0 min 0 min 0 W/m 6,4 km/h (2 Bft) 95,74 %
30.03.2022 02:44 8,3 C 7,8 C 4,4 C 77 % 1007,3 hPa 0,0 l/m 0 min 0 min 0 W/m 9,7 km/h (2 Bft) 95,74 %
30.03.2022 02:46 8,3 C 7,8 C 4,4 C 77 % 1007,3 hPa 0,0 l/m 0 min 0 min 0 W/m 9,7 km/h (2 Bft) 97,87 %
30.03.2022 02:48 8,3 C 7,8 C 4,4 C 77 % 1007,3 hPa 0,0 l/m 0 min 0 min 0 W/m 6,4 km/h (2 Bft) 97,83 %
30.03.2022 02:50 8,3 C 7,8 C 4,4 C 77 % 1007,3 hPa 0,0 l/m 0 min 0 min 0 W/m 6,4 km/h (2 Bft) 95,74 %
30.03.2022 02:52 8,3 C 7,8 C 4,4 C 77 % 1007,3 hPa 0,0 l/m 0 min 0 min 0 W/m 9,7 km/h (2 Bft) 95,74 %
30.03.2022 02:54 8,3 C 7,8 C 4,4 C 77 % 1007,4 hPa 0,0 l/m 0 min 0 min 0 W/m 9,7 km/h (2 Bft) 97,87 %
30.03.2022 02:56 8,3 C 7,8 C 4,4 C 77 % 1007,4 hPa 0,0 l/m 0 min 0 min 0 W/m 9,7 km/h (2 Bft) 97,87 %
30.03.2022 02:58 8,3 C 7,8 C 4,4 C 77 % 1007,3 hPa 0,0 l/m 0 min 0 min 0 W/m 12,9 km/h (3 Bft) 97,87 %
30.03.2022 03:00 8,3 C 7,8 C 4,4 C 77 % 1007,3 hPa 0,0 l/m 0 min 0 min 0 W/m 9,7 km/h (2 Bft) 97,83 %
30.03.2022 03:02 8,3 C 7,8 C 4,4 C 77 % 1007,3 hPa 0,0 l/m 0 min 0 min 0 W/m 3,2 km/h (1 Bft) 97,87 %
30.03.2022 03:04 8,3 C 7,8 C 4,4 C 77 % 1007,3 hPa 0,0 l/m 0 min 0 min 0 W/m 6,4 km/h (2 Bft) 97,87 %
30.03.2022 03:06 8,3 C 7,8 C 4,4 C 77 % 1007,2 hPa 0,0 l/m 0 min 0 min 0 W/m 9,7 km/h (2 Bft) 97,87 %
30.03.2022 03:08 8,3 C 7,8 C 4,4 C 77 % 1007,2 hPa 0,0 l/m 0 min 0 min 0 W/m 9,7 km/h (2 Bft) 97,87 %
30.03.2022 03:10 8,3 C 7,8 C 4,4 C 77 % 1007,2 hPa 0,0 l/m 0 min 0 min 0 W/m 9,7 km/h (2 Bft) 97,87 %
30.03.2022 03:12 8,3 C 7,8 C 3,9 C 77 % 1007,1 hPa 0,0 l/m 0 min 0 min 0 W/m 6,4 km/h (2 Bft) 97,83 %
30.03.2022 03:14 8,3 C 7,8 C 3,9 C 77 % 1007,1 hPa 0,0 l/m 0 min 0 min 0 W/m 6,4 km/h (2 Bft) 100,00 %
30.03.2022 03:16 8,3 C 7,2 C 3,9 C 77 % 1007,0 hPa 0,0 l/m 0 min 0 min 0 W/m 9,7 km/h (2 Bft) 100,00 %
30.03.2022 03:18 8,2 C 7,2 C 3,9 C 77 % 1007,0 hPa 0,0 l/m 0 min 0 min 0 W/m 6,4 km/h (2 Bft) 100,00 %
30.03.2022 03:20 8,2 C 7,2 C 3,9 C 77 % 1006,9 hPa 0,0 l/m 0 min 0 min 0 W/m 6,4 km/h (2 Bft) 100,00 %
30.03.2022 03:22 8,2 C 7,2 C 3,9 C 77 % 1007,0 hPa 0,0 l/m 0 min 0 min 0 W/m 9,7 km/h (2 Bft) 100,00 %
30.03.2022 03:24 8,2 C 7,2 C 3,9 C 77 % 1006,9 hPa 0,0 l/m 0 min 0 min 0 W/m 9,7 km/h (2 Bft) 100,00 %
30.03.2022 03:26 8,2 C 7,2 C 3,9 C 77 % 1007,0 hPa 0,0 l/m 0 min 0 min 0 W/m 6,4 km/h (2 Bft) 100,00 %
30.03.2022 03:28 8,2 C 7,2 C 3,9 C 77 % 1006,9 hPa 0,0 l/m 0 min 0 min 0 W/m 16,1 km/h (3 Bft) 100,00 %
30.03.2022 03:30 8,1 C 7,2 C 3,9 C 77 % 1006,9 hPa 0,0 l/m 0 min 0 min 0 W/m 12,9 km/h (3 Bft) 100,00 %
30.03.2022 03:32 8,1 C 7,2 C 3,9 C 77 % 1006,9 hPa 0,0 l/m 0 min 0 min 0 W/m 9,7 km/h (2 Bft) 100,00 %
30.03.2022 03:34 8,1 C 7,2 C 3,9 C 77 % 1006,9 hPa 0,0 l/m 0 min 0 min 0 W/m 6,4 km/h (2 Bft) 97,87 %
30.03.2022 03:36 8,1 C 7,2 C 3,9 C 77 % 1006,8 hPa 0,0 l/m 0 min 0 min 0 W/m 9,7 km/h (2 Bft) 97,83 %
30.03.2022 03:38 8,1 C 7,2 C 3,9 C 77 % 1006,8 hPa 0,0 l/m 0 min 0 min 0 W/m 9,7 km/h (2 Bft) 95,74 %
30.03.2022 03:40 8,1 C 7,2 C 3,9 C 77 % 1006,8 hPa 0,0 l/m 0 min 0 min 0 W/m 9,7 km/h (2 Bft) 97,87 %
30.03.2022 03:42 8,1 C 7,2 C 3,9 C 77 % 1006,7 hPa 0,0 l/m 0 min 0 min 0 W/m 9,7 km/h (2 Bft) 95,74 %
30.03.2022 03:44 8,1 C 7,2 C 3,9 C 77 % 1006,7 hPa 0,0 l/m 0 min 0 min 0 W/m 6,4 km/h (2 Bft) 97,87 %
30.03.2022 03:46 8,1 C 7,2 C 3,9 C 77 % 1006,7 hPa 0,0 l/m 0 min 0 min 0 W/m 12,9 km/h (3 Bft) 95,74 %
30.03.2022 03:48 8,1 C 7,2 C 3,9 C 78 % 1006,6 hPa 0,0 l/m 0 min 0 min 0 W/m 12,9 km/h (3 Bft) 97,83 %
30.03.2022 03:50 8,0 C 7,2 C 3,9 C 78 % 1006,6 hPa 0,0 l/m 0 min 0 min 0 W/m 12,9 km/h (3 Bft) 97,87 %
30.03.2022 03:52 8,0 C 7,2 C 3,9 C 78 % 1006,5 hPa 0,0 l/m 0 min 0 min 0 W/m 9,7 km/h (2 Bft) 97,87 %
30.03.2022 03:54 8,0 C 7,2 C 3,9 C 78 % 1006,5 hPa 0,0 l/m 0 min 0 min 0 W/m 9,7 km/h (2 Bft) 97,87 %
30.03.2022 03:56 7,9 C 7,2 C 3,9 C 78 % 1006,5 hPa 0,0 l/m 0 min 0 min 0 W/m 6,4 km/h (2 Bft) 97,87 %
30.03.2022 03:58 8,0 C 7,2 C 3,9 C 78 % 1006,5 hPa 0,0 l/m 0 min 0 min 0 W/m 9,7 km/h (2 Bft) 97,87 %
30.03.2022 04:00 7,9 C 7,2 C 3,9 C 78 % 1006,5 hPa 0,0 l/m 0 min 0 min 0 W/m 9,7 km/h (2 Bft) 97,83 %
30.03.2022 04:02 7,9 C 7,2 C 3,9 C 78 % 1006,5 hPa 0,0 l/m 0 min 0 min 0 W/m 9,7 km/h (2 Bft) 100,00 %
30.03.2022 04:04 7,9 C 7,2 C 3,9 C 78 % 1006,5 hPa 0,0 l/m 0 min 0 min 0 W/m 6,4 km/h (2 Bft) 97,87 %
30.03.2022 04:06 7,9 C 7,2 C 3,9 C 78 % 1006,4 hPa 0,0 l/m 0 min 0 min 0 W/m 12,9 km/h (3 Bft) 100,00 %
30.03.2022 04:08 7,9 C 7,2 C 3,9 C 78 % 1006,4 hPa 0,0 l/m 0 min 0 min 0 W/m 9,7 km/h (2 Bft) 100,00 %
30.03.2022 04:10 7,9 C 7,2 C 3,9 C 78 % 1006,4 hPa 0,0 l/m 0 min 0 min 0 W/m 9,7 km/h (2 Bft) 100,00 %
30.03.2022 04:12 7,9 C 7,2 C 3,9 C 78 % 1006,4 hPa 0,0 l/m 0 min 0 min 0 W/m 6,4 km/h (2 Bft) 97,87 %
30.03.2022 04:14 7,8 C 7,2 C 3,9 C 78 % 1006,4 hPa 0,0 l/m 0 min 0 min 0 W/m 9,7 km/h (2 Bft) 100,00 %
30.03.2022 04:16 7,8 C 7,2 C 3,3 C 78 % 1006,4 hPa 0,0 l/m 0 min 0 min 0 W/m 6,4 km/h (2 Bft) 100,00 %
30.03.2022 04:18 7,8 C 7,2 C 3,3 C 78 % 1006,4 hPa 0,0 l/m 0 min 0 min 0 W/m 6,4 km/h (2 Bft) 100,00 %
30.03.2022 04:20 7,8 C 7,2 C 3,3 C 78 % 1006,4 hPa 0,0 l/m 0 min 0 min 0 W/m 3,2 km/h (1 Bft) 100,00 %
30.03.2022 04:22 7,8 C 7,2 C 3,3 C 78 % 1006,4 hPa 0,0 l/m 0 min 0 min 0 W/m 16,1 km/h (3 Bft) 100,00 %
30.03.2022 04:24 7,8 C 7,2 C 3,3 C 78 % 1006,4 hPa 0,0 l/m 0 min 0 min 0 W/m 9,7 km/h (2 Bft) 100,00 %
30.03.2022 04:26 7,8 C 6,7 C 3,3 C 78 % 1006,4 hPa 0,0 l/m 0 min 0 min 0 W/m 9,7 km/h (2 Bft) 97,87 %
30.03.2022 04:28 7,8 C 7,2 C 3,3 C 78 % 1006,4 hPa 0,0 l/m 0 min 0 min 0 W/m 3,2 km/h (1 Bft) 100,00 %
30.03.2022 04:30 7,8 C 6,7 C 3,3 C 78 % 1006,3 hPa 0,0 l/m 0 min 0 min 0 W/m 3,2 km/h (1 Bft) 100,00 %
30.03.2022 04:32 7,7 C 6,7 C 3,3 C 78 % 1006,3 hPa 0,0 l/m 0 min 0 min 0 W/m 6,4 km/h (2 Bft) 95,74 %
30.03.2022 04:34 7,7 C 6,7 C 3,3 C 78 % 1006,3 hPa 0,0 l/m 0 min 0 min 0 W/m 6,4 km/h (2 Bft) 100,00 %
30.03.2022 04:36 7,7 C 6,7 C 3,3 C 79 % 1006,3 hPa 0,0 l/m 0 min 0 min 0 W/m 3,2 km/h (1 Bft) 100,00 %
30.03.2022 04:38 7,7 C 6,7 C 3,3 C 79 % 1006,2 hPa 0,0 l/m 0 min 0 min 0 W/m 9,7 km/h (2 Bft) 100,00 %
30.03.2022 04:40 7,7 C 6,7 C 3,3 C 79 % 1006,2 hPa 0,0 l/m 0 min 0 min 0 W/m 6,4 km/h (2 Bft) 97,87 %
30.03.2022 04:42 7,7 C 6,7 C 3,3 C 79 % 1006,1 hPa 0,0 l/m 0 min 0 min 0 W/m 9,7 km/h (2 Bft) 100,00 %
30.03.2022 04:44 7,6 C 6,7 C 3,3 C 79 % 1006,1 hPa 0,0 l/m 0 min 0 min 0 W/m 6,4 km/h (2 Bft) 100,00 %
30.03.2022 04:46 7,6 C 6,7 C 3,3 C 79 % 1006,1 hPa 0,0 l/m 0 min 0 min 0 W/m 9,7 km/h (2 Bft) 100,00 %
30.03.2022 04:48 7,6 C 6,7 C 3,3 C 79 % 1006,1 hPa 0,0 l/m 0 min 0 min 0 W/m 9,7 km/h (2 Bft) 100,00 %
30.03.2022 04:50 7,6 C 6,7 C 3,3 C 79 % 1006,0 hPa 0,0 l/m 0 min 0 min 0 W/m 9,7 km/h (2 Bft) 97,87 %
30.03.2022 04:52 7,6 C 6,7 C 3,3 C 79 % 1006,0 hPa 0,0 l/m 0 min 0 min 0 W/m 6,4 km/h (2 Bft) 95,74 %
30.03.2022 04:54 7,5 C 6,7 C 3,3 C 79 % 1006,0 hPa 0,0 l/m 0 min 0 min 0 W/m 6,4 km/h (2 Bft) 97,87 %
30.03.2022 04:56 7,5 C 6,7 C 3,3 C 80 % 1006,0 hPa 0,0 l/m 0 min 0 min 0 W/m 12,9 km/h (3 Bft) 95,74 %
30.03.2022 04:58 7,4 C 6,7 C 3,3 C 80 % 1006,0 hPa 0,0 l/m 0 min 0 min 0 W/m 9,7 km/h (2 Bft) 95,65 %
30.03.2022 05:00 7,4 C 6,7 C 3,3 C 80 % 1006,0 hPa 0,0 l/m 0 min 0 min 0 W/m 9,7 km/h (2 Bft) 95,74 %
30.03.2022 05:02 7,4 C 6,7 C 2,8 C 80 % 1006,0 hPa 0,0 l/m 0 min 0 min 0 W/m 6,4 km/h (2 Bft) 95,74 %
30.03.2022 05:04 7,4 C 6,7 C 2,8 C 80 % 1006,0 hPa 0,0 l/m 0 min 0 min 0 W/m 6,4 km/h (2 Bft) 95,74 %
30.03.2022 05:06 7,3 C 6,1 C 2,8 C 80 % 1006,0 hPa 0,0 l/m 0 min 0 min 0 W/m 6,4 km/h (2 Bft) 93,62 %
30.03.2022 05:08 7,3 C 6,1 C 2,8 C 80 % 1006,0 hPa 0,0 l/m 0 min 0 min 0 W/m 6,4 km/h (2 Bft) 93,62 %
30.03.2022 05:10 7,3 C 6,1 C 2,8 C 80 % 1006,0 hPa 0,0 l/m 0 min 0 min 0 W/m 3,2 km/h (1 Bft) 95,65 %
30.03.2022 05:12 7,3 C 6,1 C 2,8 C 80 % 1006,0 hPa 0,0 l/m 0 min 0 min 0 W/m 9,7 km/h (2 Bft) 95,74 %
30.03.2022 05:14 7,3 C 6,1 C 2,8 C 80 % 1005,9 hPa 0,0 l/m 0 min 0 min 0 W/m 6,4 km/h (2 Bft) 95,74 %
30.03.2022 05:16 7,2 C 6,1 C 2,8 C 80 % 1006,0 hPa 0,0 l/m 0 min 0 min 0 W/m 9,7 km/h (2 Bft) 95,74 %
30.03.2022 05:18 7,2 C 6,1 C 2,8 C 80 % 1005,9 hPa 0,0 l/m 0 min 0 min 0 W/m 9,7 km/h (2 Bft) 95,74 %
30.03.2022 05:20 7,2 C 6,1 C 2,8 C 80 % 1005,9 hPa 0,0 l/m 0 min 0 min 0 W/m 3,2 km/h (1 Bft) 95,74 %
30.03.2022 05:22 7,2 C 6,1 C 2,8 C 80 % 1005,9 hPa 0,0 l/m 0 min 0 min 0 W/m 6,4 km/h (2 Bft) 93,48 %
30.03.2022 05:24 7,2 C 6,1 C 2,8 C 81 % 1005,9 hPa 0,0 l/m 0 min 0 min 0 W/m 6,4 km/h (2 Bft) 89,36 %
30.03.2022 05:26 7,1 C 6,1 C 2,8 C 81 % 1005,9 hPa 0,0 l/m 0 min 0 min 0 W/m 6,4 km/h (2 Bft) 93,62 %
30.03.2022 05:28 7,1 C 6,1 C 2,8 C 81 % 1005,9 hPa 0,0 l/m 0 min 0 min 0 W/m 12,9 km/h (3 Bft) 93,62 %
30.03.2022 05:30 7,1 C 6,1 C 2,8 C 81 % 1005,9 hPa 0,0 l/m 0 min 0 min 0 W/m 9,7 km/h (2 Bft) 95,74 %
30.03.2022 05:32 7,1 C 6,1 C 2,8 C 81 % 1005,9 hPa 0,0 l/m 0 min 0 min 0 W/m 6,4 km/h (2 Bft) 95,74 %
30.03.2022 05:34 7,0 C 6,1 C 2,8 C 81 % 1005,9 hPa 0,0 l/m 0 min 0 min 0 W/m 6,4 km/h (2 Bft) 91,30 %
30.03.2022 05:36 6,9 C 5,6 C 2,8 C 81 % 1005,9 hPa 0,0 l/m 0 min 0 min 0 W/m 9,7 km/h (2 Bft) 52,63 %
30.03.2022 05:38 6,9 C 5,6 C 2,2 C 81 % 1005,9 hPa 0,0 l/m 0 min 0 min 0 W/m 6,4 km/h (2 Bft) 95,74 %
30.03.2022 05:40 6,8 C 5,6 C 2,2 C 81 % 1005,9 hPa 0,0 l/m 0 min 0 min 0 W/m 12,9 km/h (3 Bft) 97,87 %
30.03.2022 05:42 6,8 C 5,6 C 2,2 C 81 % 1005,9 hPa 0,0 l/m 0 min 0 min 0 W/m 6,4 km/h (2 Bft) 93,62 %
30.03.2022 05:44 6,8 C 5,6 C 2,2 C 81 % 1005,9 hPa 0,0 l/m 0 min 0 min 0 W/m 9,7 km/h (2 Bft) 95,74 %
30.03.2022 05:46 6,8 C 5,6 C 2,2 C 81 % 1005,9 hPa 0,0 l/m 0 min 0 min 0 W/m 6,4 km/h (2 Bft) 95,65 %
30.03.2022 05:48 6,7 C 5,6 C 2,2 C 81 % 1005,9 hPa 0,0 l/m 0 min 0 min 0 W/m 6,4 km/h (2 Bft) 93,62 %
30.03.2022 05:50 6,7 C 5,6 C 2,2 C 81 % 1005,8 hPa 0,0 l/m 0 min 0 min 0 W/m 9,7 km/h (2 Bft) 95,74 %
30.03.2022 05:52 6,7 C 5,6 C 2,2 C 82 % 1005,9 hPa 0,0 l/m 0 min 0 min 0 W/m 3,2 km/h (1 Bft) 95,74 %
30.03.2022 05:54 6,6 C 5,6 C 2,2 C 82 % 1005,9 hPa 0,0 l/m 0 min 0 min 0 W/m 3,2 km/h (1 Bft) 100,00 %
30.03.2022 05:56 6,6 C 5,0 C 2,2 C 82 % 1005,9 hPa 0,0 l/m 0 min 0 min 0 W/m 3,2 km/h (1 Bft) 97,83 %
30.03.2022 05:58 6,6 C 5,0 C 2,2 C 82 % 1005,9 hPa 0,0 l/m 0 min 0 min 0 W/m 3,2 km/h (1 Bft) 100,00 %
30.03.2022 06:00 6,5 C 5,0 C 2,2 C 82 % 1005,9 hPa 0,0 l/m 0 min 0 min 0 W/m 12,9 km/h (3 Bft) 95,74 %
30.03.2022 06:02 6,5 C 5,0 C 2,2 C 82 % 1005,8 hPa 0,0 l/m 0 min 0 min 0 W/m 9,7 km/h (2 Bft) 97,87 %
30.03.2022 06:04 6,4 C 5,0 C 2,2 C 82 % 1005,8 hPa 0,0 l/m 0 min 0 min 0 W/m 6,4 km/h (2 Bft) 100,00 %
30.03.2022 06:08 6,3 C 5,0 C 1,7 C 83 % 1005,8 hPa 0,0 l/m 0 min 0 min 0 W/m 6,4 km/h (2 Bft) 100,00 %
30.03.2022 06:10 6,3 C 5,0 C 1,7 C 83 % 1005,8 hPa 0,0 l/m 0 min 0 min 0 W/m 6,4 km/h (2 Bft) 95,74 %
30.03.2022 06:12 6,3 C 5,0 C 1,7 C 83 % 1005,8 hPa 0,0 l/m 0 min 0 min 0 W/m 6,4 km/h (2 Bft) 100,00 %
30.03.2022 06:14 6,2 C 5,0 C 1,7 C 83 % 1005,8 hPa 0,0 l/m 0 min 0 min 0 W/m 3,2 km/h (1 Bft) 100,00 %
30.03.2022 06:16 6,2 C 5,0 C 1,7 C 83 % 1005,7 hPa 0,0 l/m 0 min 0 min 0 W/m 3,2 km/h (1 Bft) 100,00 %
30.03.2022 06:18 6,2 C 5,0 C 1,7 C 83 % 1005,8 hPa 0,0 l/m 0 min 0 min 0 W/m 3,2 km/h (1 Bft) 100,00 %
30.03.2022 06:20 6,2 C 5,0 C 1,7 C 84 % 1005,7 hPa 0,0 l/m 0 min 0 min 0 W/m 3,2 km/h (1 Bft) 97,83 %
30.03.2022 06:22 6,2 C 5,0 C 1,7 C 84 % 1005,7 hPa 0,0 l/m 0 min 0 min 0 W/m 3,2 km/h (1 Bft) 100,00 %
30.03.2022 06:24 6,1 C 5,0 C 1,7 C 84 % 1005,7 hPa 0,0 l/m 0 min 0 min 0 W/m 3,2 km/h (1 Bft) 100,00 %
30.03.2022 06:26 6,1 C 5,0 C 1,7 C 84 % 1005,7 hPa 0,0 l/m 0 min 0 min 0 W/m 3,2 km/h (1 Bft) 100,00 %
30.03.2022 06:28 6,1 C 5,0 C 1,7 C 84 % 1005,6 hPa 0,0 l/m 0 min 0 min 0 W/m 6,4 km/h (2 Bft) 97,87 %
30.03.2022 06:30 6,1 C 5,0 C 1,7 C 84 % 1005,6 hPa 0,0 l/m 0 min 0 min 0 W/m 6,4 km/h (2 Bft) 100,00 %
30.03.2022 06:32 6,0 C 5,0 C 1,7 C 84 % 1005,6 hPa 0,0 l/m 0 min 0 min 0 W/m 3,2 km/h (1 Bft) 97,83 %
30.03.2022 06:34 6,0 C 5,0 C 1,7 C 84 % 1005,6 hPa 0,0 l/m 0 min 0 min 0 W/m 6,4 km/h (2 Bft) 97,87 %
30.03.2022 06:36 5,9 C 5,0 C 1,7 C 84 % 1005,6 hPa 0,0 l/m 0 min 0 min 0 W/m 3,2 km/h (1 Bft) 100,00 %
30.03.2022 06:38 5,9 C 5,0 C 1,7 C 84 % 1005,5 hPa 0,0 l/m 0 min 0 min 0 W/m 3,2 km/h (1 Bft) 100,00 %
30.03.2022 06:40 5,9 C 5,0 C 1,7 C 84 % 1005,6 hPa 0,0 l/m 0 min 0 min 0 W/m 3,2 km/h (1 Bft) 100,00 %
30.03.2022 06:42 5,9 C 5,0 C 1,7 C 84 % 1005,6 hPa 0,0 l/m 0 min 0 min 0 W/m 3,2 km/h (1 Bft) 74,47 %
30.03.2022 06:44 5,8 C 5,0 C 1,7 C 84 % 1005,6 hPa 0,0 l/m 0 min 0 min 0 W/m 3,2 km/h (1 Bft) 70,37 %
30.03.2022 06:46 5,8 C 4,4 C 1,7 C 84 % 1005,5 hPa 0,0 l/m 0 min 0 min 0 W/m 6,4 km/h (2 Bft) 100,00 %
30.03.2022 06:48 5,8 C 4,4 C 1,7 C 85 % 1005,5 hPa 0,0 l/m 0 min 0 min 0 W/m 3,2 km/h (1 Bft) 100,00 %
30.03.2022 06:50 5,7 C 4,4 C 1,7 C 85 % 1005,5 hPa 0,0 l/m 0 min 0 min 0 W/m 3,2 km/h (1 Bft) 97,87 %
30.03.2022 06:52 5,7 C 4,4 C 1,7 C 85 % 1005,5 hPa 0,0 l/m 0 min 0 min 0 W/m 9,7 km/h (2 Bft) 100,00 %
30.03.2022 06:54 5,7 C 4,4 C 1,7 C 85 % 1005,5 hPa 0,0 l/m 0 min 0 min 0 W/m 0,0 km/h (0 Bft) 100,00 %
30.03.2022 06:56 5,7 C 4,4 C 1,7 C 85 % 1005,5 hPa 0,0 l/m 0 min 0 min 0 W/m 6,4 km/h (2 Bft) 100,00 %
30.03.2022 06:58 5,6 C 4,4 C 1,7 C 85 % 1005,5 hPa 0,0 l/m 0 min 0 min 0 W/m 6,4 km/h (2 Bft) 97,87 %
30.03.2022 07:00 5,6 C 4,4 C 1,7 C 85 % 1005,5 hPa 0,0 l/m 0 min 0 min 0 W/m 3,2 km/h (1 Bft) 100,00 %
30.03.2022 07:02 5,6 C 4,4 C 1,1 C 85 % 1005,5 hPa 0,0 l/m 0 min 0 min 0 W/m 0,0 km/h (0 Bft) 97,87 %
30.03.2022 07:04 5,6 C 4,4 C 1,1 C 85 % 1005,5 hPa 0,0 l/m 0 min 0 min 0 W/m 6,4 km/h (2 Bft) 97,87 %
30.03.2022 07:06 5,6 C 4,4 C 1,1 C 86 % 1005,5 hPa 0,0 l/m 0 min 0 min 0 W/m 6,4 km/h (2 Bft) 93,62 %
30.03.2022 07:08 5,5 C 4,4 C 1,1 C 86 % 1005,6 hPa 0,0 l/m 0 min 0 min 0 W/m 3,2 km/h (1 Bft) 95,65 %
30.03.2022 07:10 5,5 C 4,4 C 1,1 C 86 % 1005,6 hPa 0,0 l/m 0 min 0 min 0 W/m 6,4 km/h (2 Bft) 95,74 %
30.03.2022 07:12 5,5 C 4,4 C 1,1 C 86 % 1005,5 hPa 0,0 l/m 0 min 0 min 0 W/m 3,2 km/h (1 Bft) 93,62 %
30.03.2022 07:14 5,4 C 4,4 C 1,1 C 86 % 1005,5 hPa 0,0 l/m 0 min 0 min 0 W/m 6,4 km/h (2 Bft) 93,62 %
30.03.2022 07:16 5,4 C 4,4 C 1,1 C 86 % 1005,5 hPa 0,0 l/m 0 min 0 min 0 W/m 3,2 km/h (1 Bft) 95,74 %
30.03.2022 07:18 5,4 C 4,4 C 1,1 C 86 % 1005,5 hPa 0,0 l/m 0 min 0 min 0 W/m 3,2 km/h (1 Bft) 95,65 %
30.03.2022 07:20 5,4 C 4,4 C 1,1 C 86 % 1005,6 hPa 0,0 l/m 0 min 0 min 5 W/m 3,2 km/h (1 Bft) 93,62 %
30.03.2022 07:22 5,3 C 4,4 C 1,1 C 86 % 1005,5 hPa 0,0 l/m 0 min 0 min 5 W/m 3,2 km/h (1 Bft) 95,74 %
30.03.2022 07:24 5,3 C 4,4 C 1,1 C 86 % 1005,5 hPa 0,0 l/m 0 min 0 min 7 W/m 3,2 km/h (1 Bft) 95,74 %
30.03.2022 07:26 5,3 C 4,4 C 1,1 C 86 % 1005,6 hPa 0,0 l/m 0 min 0 min 7 W/m 3,2 km/h (1 Bft) 95,74 %
30.03.2022 07:28 5,3 C 4,4 C 1,1 C 86 % 1005,6 hPa 0,0 l/m 0 min 0 min 10 W/m 3,2 km/h (1 Bft) 93,62 %
30.03.2022 07:30 5,3 C 4,4 C 1,1 C 86 % 1005,5 hPa 0,0 l/m 0 min 0 min 11 W/m 6,4 km/h (2 Bft) 95,65 %
30.03.2022 07:32 5,2 C 4,4 C 1,1 C 86 % 1005,5 hPa 0,0 l/m 0 min 0 min 12 W/m 9,7 km/h (2 Bft) 95,74 %
30.03.2022 07:34 5,2 C 4,4 C 1,1 C 87 % 1005,5 hPa 0,0 l/m 0 min 0 min 12 W/m 9,7 km/h (2 Bft) 95,74 %
30.03.2022 07:36 5,2 C 4,4 C 1,1 C 86 % 1005,6 hPa 0,0 l/m 0 min 0 min 14 W/m 9,7 km/h (2 Bft) 100,00 %
30.03.2022 07:38 5,2 C 4,4 C 1,1 C 86 % 1005,5 hPa 0,0 l/m 0 min 0 min 14 W/m 6,4 km/h (2 Bft) 100,00 %
30.03.2022 07:40 5,2 C 4,4 C 1,1 C 87 % 1005,5 hPa 0,0 l/m 0 min 0 min 16 W/m 12,9 km/h (3 Bft) 100,00 %
30.03.2022 07:42 5,2 C 4,4 C 1,1 C 87 % 1005,5 hPa 0,0 l/m 0 min 0 min 18 W/m 12,9 km/h (3 Bft) 100,00 %
30.03.2022 07:44 5,1 C 4,4 C 1,1 C 87 % 1005,4 hPa 0,0 l/m 0 min 0 min 19 W/m 6,4 km/h (2 Bft) 100,00 %
30.03.2022 07:46 5,1 C 4,4 C 1,1 C 87 % 1005,4 hPa 0,0 l/m 0 min 0 min 20 W/m 6,4 km/h (2 Bft) 100,00 %
30.03.2022 07:48 5,1 C 4,4 C 1,1 C 87 % 1005,4 hPa 0,0 l/m 0 min 0 min 22 W/m 9,7 km/h (2 Bft) 100,00 %
30.03.2022 07:50 5,1 C 4,4 C 1,1 C 87 % 1005,4 hPa 0,0 l/m 0 min 0 min 24 W/m 3,2 km/h (1 Bft) 100,00 %
30.03.2022 07:52 5,1 C 4,4 C 1,1 C 87 % 1005,4 hPa 0,0 l/m 0 min 0 min 25 W/m 12,9 km/h (3 Bft) 100,00 %
30.03.2022 07:54 5,1 C 4,4 C 1,1 C 87 % 1005,4 hPa 0,0 l/m 0 min 0 min 26 W/m 9,7 km/h (2 Bft) 100,00 %
30.03.2022 07:56 5,0 C 4,4 C 1,1 C 87 % 1005,5 hPa 0,0 l/m 0 min 0 min 27 W/m 6,4 km/h (2 Bft) 100,00 %
30.03.2022 07:58 5,0 C 4,4 C 1,1 C 87 % 1005,5 hPa 0,0 l/m 0 min 0 min 29 W/m 9,7 km/h (2 Bft) 100,00 %
30.03.2022 08:00 5,0 C 4,4 C 1,1 C 87 % 1005,5 hPa 0,0 l/m 0 min 0 min 31 W/m 6,4 km/h (2 Bft) 97,87 %
30.03.2022 08:02 5,0 C 4,4 C 1,1 C 87 % 1005,5 hPa 0,0 l/m 0 min 0 min 32 W/m 9,7 km/h (2 Bft) 97,87 %
30.03.2022 08:04 5,0 C 4,4 C 1,1 C 87 % 1005,5 hPa 0,0 l/m 0 min 0 min 32 W/m 6,4 km/h (2 Bft) 100,00 %
30.03.2022 08:06 5,0 C 4,4 C 1,1 C 87 % 1005,6 hPa 0,0 l/m 0 min 0 min 33 W/m 16,1 km/h (3 Bft) 100,00 %
30.03.2022 08:08 5,0 C 4,4 C 1,1 C 87 % 1005,6 hPa 0,0 l/m 0 min 0 min 33 W/m 16,1 km/h (3 Bft) 100,00 %
30.03.2022 08:10 5,0 C 4,4 C 1,1 C 87 % 1005,6 hPa 0,0 l/m 0 min 0 min 37 W/m 3,2 km/h (1 Bft) 97,87 %
30.03.2022 08:12 5,0 C 4,4 C 1,1 C 87 % 1005,6 hPa 0,0 l/m 0 min 0 min 39 W/m 9,7 km/h (2 Bft) 100,00 %
30.03.2022 08:14 4,9 C 4,4 C 1,1 C 87 % 1005,7 hPa 0,0 l/m 0 min 0 min 39 W/m 3,2 km/h (1 Bft) 100,00 %
30.03.2022 08:16 4,9 C 4,4 C 1,1 C 87 % 1005,7 hPa 0,0 l/m 0 min 0 min 38 W/m 9,7 km/h (2 Bft) 100,00 %
30.03.2022 08:18 4,9 C 4,4 C 1,1 C 87 % 1005,7 hPa 0,0 l/m 0 min 0 min 37 W/m 9,7 km/h (2 Bft) 100,00 %
30.03.2022 08:20 4,9 C 4,4 C 1,1 C 87 % 1005,7 hPa 0,0 l/m 0 min 0 min 37 W/m 6,4 km/h (2 Bft) 100,00 %
30.03.2022 08:22 4,9 C 4,4 C 1,1 C 87 % 1005,7 hPa 0,0 l/m 0 min 0 min 39 W/m 6,4 km/h (2 Bft) 100,00 %
30.03.2022 08:24 4,9 C 4,4 C 1,1 C 87 % 1005,7 hPa 0,0 l/m 0 min 0 min 40 W/m 9,7 km/h (2 Bft) 100,00 %
30.03.2022 08:26 4,9 C 4,4 C 1,1 C 87 % 1005,8 hPa 0,0 l/m 0 min 0 min 42 W/m 9,7 km/h (2 Bft) 100,00 %
30.03.2022 08:28 4,9 C 4,4 C 1,1 C 87 % 1005,8 hPa 0,0 l/m 0 min 0 min 42 W/m 9,7 km/h (2 Bft) 97,87 %
30.03.2022 08:30 4,9 C 4,4 C 1,1 C 87 % 1005,8 hPa 0,0 l/m 0 min 0 min 44 W/m 6,4 km/h (2 Bft) 97,83 %
30.03.2022 08:32 4,9 C 4,4 C 1,1 C 87 % 1005,9 hPa 0,0 l/m 0 min 0 min 46 W/m 9,7 km/h (2 Bft) 95,74 %
30.03.2022 08:34 4,9 C 4,4 C 1,1 C 88 % 1005,8 hPa 0,0 l/m 0 min 0 min 48 W/m 6,4 km/h (2 Bft) 97,87 %
30.03.2022 08:36 4,9 C 4,4 C 1,1 C 88 % 1005,9 hPa 0,0 l/m 0 min 0 min 52 W/m 6,4 km/h (2 Bft) 95,74 %
30.03.2022 08:38 4,9 C 4,4 C 1,1 C 88 % 1005,8 hPa 0,0 l/m 0 min 0 min 56 W/m 3,2 km/h (1 Bft) 97,83 %
30.03.2022 08:40 4,9 C 5,0 C 1,1 C 88 % 1005,9 hPa 0,0 l/m 0 min 0 min 61 W/m 3,2 km/h (1 Bft) 95,74 %
30.03.2022 08:42 4,9 C 5,0 C 1,1 C 88 % 1005,9 hPa 0,0 l/m 0 min 0 min 68 W/m 6,4 km/h (2 Bft) 97,87 %
30.03.2022 08:44 4,9 C 5,0 C 1,1 C 88 % 1005,9 hPa 0,0 l/m 0 min 0 min 70 W/m 6,4 km/h (2 Bft) 97,87 %
30.03.2022 08:46 4,9 C 5,0 C 1,1 C 88 % 1005,9 hPa 0,0 l/m 0 min 0 min 72 W/m 16,1 km/h (3 Bft) 97,87 %
30.03.2022 08:48 4,9 C 5,0 C 1,7 C 88 % 1005,8 hPa 0,0 l/m 0 min 0 min 74 W/m 9,7 km/h (2 Bft) 95,74 %
30.03.2022 08:50 4,9 C 5,0 C 1,7 C 88 % 1005,8 hPa 0,0 l/m 0 min 0 min 76 W/m 6,4 km/h (2 Bft) 95,65 %
30.03.2022 08:52 5,0 C 5,0 C 1,7 C 88 % 1005,8 hPa 0,0 l/m 0 min 0 min 77 W/m 6,4 km/h (2 Bft) 95,74 %
30.03.2022 08:54 5,0 C 5,0 C 1,7 C 88 % 1005,8 hPa 0,0 l/m 0 min 0 min 78 W/m 6,4 km/h (2 Bft) 93,62 %
30.03.2022 08:56 5,0 C 5,6 C 1,7 C 88 % 1005,9 hPa 0,0 l/m 0 min 0 min 81 W/m 9,7 km/h (2 Bft) 95,74 %
30.03.2022 08:58 5,1 C 5,6 C 1,7 C 88 % 1005,9 hPa 0,0 l/m 0 min 0 min 83 W/m 9,7 km/h (2 Bft) 93,62 %
30.03.2022 09:00 5,1 C 5,6 C 1,7 C 88 % 1005,8 hPa 0,0 l/m 0 min 0 min 83 W/m 6,4 km/h (2 Bft) 97,87 %
30.03.2022 09:02 5,2 C 5,6 C 1,7 C 88 % 1005,9 hPa 0,0 l/m 0 min 0 min 82 W/m 3,2 km/h (1 Bft) 95,65 %
30.03.2022 09:04 5,2 C 5,6 C 2,2 C 88 % 1005,9 hPa 0,0 l/m 0 min 0 min 82 W/m 6,4 km/h (2 Bft) 95,74 %
30.03.2022 09:06 5,3 C 5,6 C 2,2 C 88 % 1005,9 hPa 0,0 l/m 0 min 0 min 82 W/m 12,9 km/h (3 Bft) 93,62 %
30.03.2022 09:08 5,3 C 5,6 C 2,2 C 88 % 1005,9 hPa 0,0 l/m 0 min 0 min 78 W/m 9,7 km/h (2 Bft) 95,74 %
30.03.2022 09:10 5,3 C 5,6 C 2,2 C 88 % 1005,8 hPa 0,0 l/m 0 min 0 min 79 W/m 9,7 km/h (2 Bft) 93,62 %
30.03.2022 09:12 5,4 C 5,6 C 2,2 C 88 % 1005,8 hPa 0,0 l/m 0 min 0 min 86 W/m 9,7 km/h (2 Bft) 95,74 %
30.03.2022 09:14 5,4 C 5,6 C 2,2 C 87 % 1005,8 hPa 0,0 l/m 0 min 0 min 94 W/m 9,7 km/h (2 Bft) 95,74 %
30.03.2022 09:16 5,4 C 6,1 C 2,2 C 87 % 1005,8 hPa 0,0 l/m 0 min 0 min 99 W/m 9,7 km/h (2 Bft) 93,48 %
30.03.2022 09:18 5,4 C 6,1 C 2,2 C 87 % 1005,8 hPa 0,0 l/m 0 min 0 min 130 W/m 16,1 km/h (3 Bft) 95,74 %
30.03.2022 09:20 5,5 C 6,1 C 2,2 C 87 % 1005,9 hPa 0,0 l/m 2 min 0 min 219 W/m 16,1 km/h (3 Bft) 97,87 %
30.03.2022 09:22 5,5 C 6,1 C 2,2 C 87 % 1005,8 hPa 0,0 l/m 2 min 0 min 207 W/m 12,9 km/h (3 Bft) 97,87 %
30.03.2022 09:24 5,6 C 6,1 C 2,2 C 87 % 1005,8 hPa 0,0 l/m 0 min 0 min 155 W/m 9,7 km/h (2 Bft) 97,87 %
30.03.2022 09:26 5,6 C 6,1 C 2,2 C 87 % 1005,7 hPa 0,0 l/m 2 min 0 min 227 W/m 9,7 km/h (2 Bft) 97,87 %
30.03.2022 09:28 5,6 C 6,7 C 2,2 C 87 % 1005,7 hPa 0,0 l/m 2 min 0 min 260 W/m 6,4 km/h (2 Bft) 95,65 %
30.03.2022 09:30 5,7 C 6,7 C 2,8 C 87 % 1005,7 hPa 0,0 l/m 2 min 0 min 276 W/m 6,4 km/h (2 Bft) 97,87 %
30.03.2022 09:32 5,7 C 6,7 C 2,8 C 87 % 1005,7 hPa 0,0 l/m 2 min 0 min 262 W/m 12,9 km/h (3 Bft) 97,87 %
30.03.2022 09:34 5,8 C 7,8 C 2,8 C 87 % 1005,7 hPa 0,0 l/m 2 min 0 min 268 W/m 6,4 km/h (2 Bft) 97,87 %
30.03.2022 09:36 5,9 C 8,3 C 2,8 C 87 % 1005,7 hPa 0,0 l/m 2 min 0 min 287 W/m 3,2 km/h (1 Bft) 93,62 %
30.03.2022 09:38 6,1 C 8,3 C 2,8 C 87 % 1005,7 hPa 0,0 l/m 2 min 0 min 212 W/m 9,7 km/h (2 Bft) 97,87 %
30.03.2022 09:40 6,2 C 8,3 C 3,3 C 86 % 1005,7 hPa 0,0 l/m 2 min 0 min 192 W/m 9,7 km/h (2 Bft) 97,83 %
30.03.2022 09:42 6,2 C 8,3 C 3,3 C 86 % 1005,7 hPa 0,0 l/m 2 min 0 min 186 W/m 6,4 km/h (2 Bft) 95,74 %
30.03.2022 09:44 6,3 C 8,3 C 2,8 C 86 % 1005,6 hPa 0,0 l/m 2 min 0 min 215 W/m 6,4 km/h (2 Bft) 97,87 %
30.03.2022 09:46 6,4 C 8,3 C 3,3 C 85 % 1005,6 hPa 0,0 l/m 2 min 0 min 233 W/m 6,4 km/h (2 Bft) 97,87 %
30.03.2022 09:48 6,5 C 8,3 C 3,3 C 85 % 1005,6 hPa 0,0 l/m 2 min 0 min 292 W/m 6,4 km/h (2 Bft) 97,87 %
30.03.2022 09:50 6,6 C 8,3 C 3,3 C 85 % 1005,7 hPa 0,0 l/m 2 min 0 min 334 W/m 9,7 km/h (2 Bft) 97,87 %
30.03.2022 09:52 6,6 C 8,3 C 3,9 C 85 % 1005,6 hPa 0,0 l/m 2 min 0 min 326 W/m 16,1 km/h (3 Bft) 97,83 %
30.03.2022 09:54 6,8 C 8,9 C 4,4 C 85 % 1005,6 hPa 0,0 l/m 2 min 0 min 322 W/m 16,1 km/h (3 Bft) 97,87 %
30.03.2022 09:56 6,9 C 9,4 C 4,4 C 84 % 1005,6 hPa 0,0 l/m 2 min 0 min 336 W/m 16,1 km/h (3 Bft) 97,87 %
30.03.2022 09:58 7,1 C 9,4 C 5,0 C 83 % 1005,6 hPa 0,0 l/m 2 min 0 min 337 W/m 16,1 km/h (3 Bft) 97,87 %
30.03.2022 10:00 7,2 C 10,0 C 5,0 C 82 % 1005,6 hPa 0,0 l/m 2 min 0 min 318 W/m 9,7 km/h (2 Bft) 97,87 %
30.03.2022 10:02 7,3 C 10,6 C 5,6 C 82 % 1005,6 hPa 0,0 l/m 2 min 0 min 292 W/m 9,7 km/h (2 Bft) 95,74 %
30.03.2022 10:04 7,4 C 11,1 C 5,6 C 82 % 1005,6 hPa 0,0 l/m 2 min 0 min 275 W/m 6,4 km/h (2 Bft) 97,83 %
30.03.2022 10:06 7,6 C 11,7 C 5,6 C 82 % 1005,6 hPa 0,0 l/m 0 min 0 min 190 W/m 9,7 km/h (2 Bft) 95,74 %
30.03.2022 10:08 7,8 C 11,1 C 5,6 C 81 % 1005,6 hPa 0,0 l/m 0 min 0 min 151 W/m 16,1 km/h (3 Bft) 97,87 %
30.03.2022 10:10 7,8 C 10,6 C 5,6 C 80 % 1005,6 hPa 0,0 l/m 2 min 0 min 262 W/m 12,9 km/h (3 Bft) 97,87 %
30.03.2022 10:12 7,9 C 11,1 C 5,6 C 80 % 1005,6 hPa 0,0 l/m 2 min 0 min 333 W/m 9,7 km/h (2 Bft) 95,74 %
30.03.2022 10:14 7,9 C 11,7 C 6,1 C 79 % 1005,6 hPa 0,0 l/m 2 min 0 min 268 W/m 9,7 km/h (2 Bft) 97,87 %
30.03.2022 10:16 8,1 C 12,2 C 6,1 C 79 % 1005,5 hPa 0,0 l/m 2 min 0 min 359 W/m 16,1 km/h (3 Bft) 97,83 %
30.03.2022 10:18 8,1 C 12,8 C 6,7 C 78 % 1005,6 hPa 0,0 l/m 2 min 0 min 398 W/m 12,9 km/h (3 Bft) 97,87 %
30.03.2022 10:20 8,3 C 12,8 C 6,7 C 78 % 1005,5 hPa 0,0 l/m 2 min 0 min 405 W/m 12,9 km/h (3 Bft) 97,87 %
30.03.2022 10:22 8,4 C 13,3 C 6,7 C 78 % 1005,5 hPa 0,0 l/m 2 min 0 min 377 W/m 12,9 km/h (3 Bft) 97,87 %
30.03.2022 10:24 8,5 C 13,3 C 6,7 C 77 % 1005,6 hPa 0,0 l/m 2 min 0 min 290 W/m 16,1 km/h (3 Bft) 97,87 %
30.03.2022 10:26 8,6 C 13,3 C 6,7 C 77 % 1005,5 hPa 0,0 l/m 2 min 0 min 392 W/m 16,1 km/h (3 Bft) 97,87 %
30.03.2022 10:28 8,6 C 12,8 C 6,7 C 76 % 1005,5 hPa 0,0 l/m 2 min 0 min 406 W/m 16,1 km/h (3 Bft) 95,65 %
30.03.2022 10:30 8,7 C 12,8 C 6,7 C 76 % 1005,5 hPa 0,0 l/m 2 min 0 min 377 W/m 12,9 km/h (3 Bft) 97,87 %
30.03.2022 10:32 8,8 C 12,8 C 6,7 C 76 % 1005,5 hPa 0,0 l/m 2 min 0 min 303 W/m 9,7 km/h (2 Bft) 97,87 %
30.03.2022 10:34 8,9 C 13,3 C 6,7 C 76 % 1005,5 hPa 0,0 l/m 0 min 0 min 225 W/m 9,7 km/h (2 Bft) 97,87 %
30.03.2022 10:36 9,1 C 12,8 C 6,7 C 75 % 1005,5 hPa 0,0 l/m 0 min 0 min 224 W/m 12,9 km/h (3 Bft) 100,00 %
30.03.2022 10:38 9,1 C 12,8 C 6,7 C 75 % 1005,5 hPa 0,0 l/m 0 min 0 min 206 W/m 12,9 km/h (3 Bft) 100,00 %
30.03.2022 10:40 9,2 C 12,8 C 6,7 C 74 % 1005,4 hPa 0,0 l/m 0 min 0 min 229 W/m 16,1 km/h (3 Bft) 100,00 %
30.03.2022 10:42 9,2 C 12,8 C 6,7 C 73 % 1005,4 hPa 0,0 l/m 2 min 0 min 344 W/m 16,1 km/h (3 Bft) 100,00 %
30.03.2022 10:44 9,2 C 12,8 C 7,2 C 73 % 1005,4 hPa 0,0 l/m 2 min 0 min 307 W/m 16,1 km/h (3 Bft) 100,00 %
30.03.2022 10:46 9,2 C 12,8 C 7,2 C 73 % 1005,4 hPa 0,0 l/m 2 min 0 min 329 W/m 19,3 km/h (3 Bft) 100,00 %
30.03.2022 10:48 9,3 C 12,2 C 7,8 C 73 % 1005,4 hPa 0,0 l/m 2 min 0 min 405 W/m 12,9 km/h (3 Bft) 100,00 %
30.03.2022 10:50 9,3 C 12,2 C 7,8 C 73 % 1005,4 hPa 0,0 l/m 2 min 0 min 479 W/m 16,1 km/h (3 Bft) 95,74 %
30.03.2022 10:52 9,4 C 12,2 C 7,8 C 73 % 1005,3 hPa 0,0 l/m 2 min 0 min 444 W/m 12,9 km/h (3 Bft) 97,83 %
30.03.2022 10:54 9,4 C 12,2 C 8,3 C 73 % 1005,4 hPa 0,0 l/m 2 min 0 min 480 W/m 9,7 km/h (2 Bft) 97,87 %
30.03.2022 10:56 9,5 C 12,2 C 8,3 C 73 % 1005,4 hPa 0,0 l/m 2 min 0 min 349 W/m 16,1 km/h (3 Bft) 93,62 %
30.03.2022 10:58 9,6 C 11,7 C 7,8 C 73 % 1005,4 hPa 0,0 l/m 2 min 0 min 369 W/m 19,3 km/h (3 Bft) 97,87 %
30.03.2022 11:00 9,6 C 12,2 C 7,8 C 73 % 1005,4 hPa 0,0 l/m 2 min 0 min 366 W/m 9,7 km/h (2 Bft) 97,87 %
30.03.2022 11:02 9,7 C 12,2 C 7,8 C 73 % 1005,4 hPa 0,0 l/m 0 min 0 min 242 W/m 9,7 km/h (2 Bft) 97,83 %
30.03.2022 11:04 9,8 C 12,8 C 7,8 C 72 % 1005,4 hPa 0,0 l/m 0 min 0 min 231 W/m 12,9 km/h (3 Bft) 97,87 %
30.03.2022 11:06 9,9 C 12,8 C 7,2 C 72 % 1005,4 hPa 0,0 l/m 2 min 0 min 349 W/m 12,9 km/h (3 Bft) 95,74 %
30.03.2022 11:08 9,9 C 12,8 C 7,8 C 71 % 1005,4 hPa 0,0 l/m 2 min 0 min 350 W/m 16,1 km/h (3 Bft) 97,87 %
30.03.2022 11:10 10,0 C 12,2 C 7,8 C 71 % 1005,4 hPa 0,0 l/m 2 min 0 min 350 W/m 16,1 km/h (3 Bft) 97,87 %
30.03.2022 11:12 10,1 C 12,8 C 7,8 C 71 % 1005,4 hPa 0,0 l/m 2 min 0 min 485 W/m 16,1 km/h (3 Bft) 95,74 %
30.03.2022 11:14 10,2 C 13,3 C 7,8 C 71 % 1005,3 hPa 0,0 l/m 2 min 0 min 523 W/m 12,9 km/h (3 Bft) 97,87 %
30.03.2022 11:16 10,2 C 13,9 C 8,3 C 71 % 1005,4 hPa 0,0 l/m 2 min 0 min 533 W/m 19,3 km/h (3 Bft) 97,83 %
30.03.2022 11:18 10,3 C 13,9 C 8,3 C 70 % 1005,2 hPa 0,0 l/m 2 min 0 min 516 W/m 12,9 km/h (3 Bft) 97,87 %
30.03.2022 11:20 10,3 C 13,9 C 8,9 C 70 % 1005,3 hPa 0,0 l/m 2 min 0 min 536 W/m 22,5 km/h (4 Bft) 97,87 %
30.03.2022 11:22 10,4 C 13,9 C 8,3 C 70 % 1005,3 hPa 0,0 l/m 2 min 0 min 545 W/m 16,1 km/h (3 Bft) 97,87 %
30.03.2022 11:24 10,5 C 14,4 C 8,9 C 70 % 1005,2 hPa 0,0 l/m 2 min 0 min 501 W/m 12,9 km/h (3 Bft) 97,87 %
30.03.2022 11:26 10,6 C 14,4 C 9,4 C 70 % 1005,2 hPa 0,0 l/m 2 min 0 min 399 W/m 22,5 km/h (4 Bft) 97,87 %
30.03.2022 11:28 10,7 C 14,4 C 10,0 C 69 % 1005,3 hPa 0,0 l/m 2 min 0 min 415 W/m 16,1 km/h (3 Bft) 97,83 %
30.03.2022 11:30 10,8 C 14,4 C 10,0 C 69 % 1005,2 hPa 0,0 l/m 2 min 0 min 415 W/m 12,9 km/h (3 Bft) 95,74 %
30.03.2022 11:32 10,9 C 14,4 C 10,0 C 69 % 1005,3 hPa 0,0 l/m 2 min 0 min 358 W/m 12,9 km/h (3 Bft) 97,87 %
30.03.2022 11:34 10,9 C 14,4 C 10,6 C 69 % 1005,3 hPa 0,0 l/m 2 min 0 min 496 W/m 16,1 km/h (3 Bft) 97,87 %
30.03.2022 11:36 10,9 C 13,9 C 11,1 C 67 % 1005,2 hPa 0,0 l/m 2 min 0 min 500 W/m 16,1 km/h (3 Bft) 97,87 %
30.03.2022 11:38 11,0 C 14,4 C 11,1 C 68 % 1005,3 hPa 0,0 l/m 2 min 0 min 395 W/m 12,9 km/h (3 Bft) 97,87 %
30.03.2022 11:40 11,1 C 14,4 C 11,7 C 67 % 1005,2 hPa 0,0 l/m 2 min 0 min 413 W/m 22,5 km/h (4 Bft) 97,83 %
30.03.2022 11:42 11,2 C 14,4 C 11,7 C 67 % 1005,2 hPa 0,0 l/m 2 min 0 min 489 W/m 19,3 km/h (3 Bft) 97,87 %
30.03.2022 11:44 11,2 C 13,9 C 11,1 C 67 % 1005,2 hPa 0,0 l/m 2 min 0 min 483 W/m 16,1 km/h (3 Bft) 97,87 %
30.03.2022 11:46 11,2 C 13,9 C 10,6 C 67 % 1005,2 hPa 0,0 l/m 2 min 0 min 429 W/m 12,9 km/h (3 Bft) 95,74 %
30.03.2022 11:48 11,2 C 14,4 C 10,6 C 67 % 1005,2 hPa 0,0 l/m 2 min 0 min 490 W/m 16,1 km/h (3 Bft) 97,87 %
30.03.2022 11:50 11,2 C 15,0 C 10,6 C 66 % 1005,2 hPa 0,0 l/m 2 min 0 min 461 W/m 16,1 km/h (3 Bft) 97,83 %
30.03.2022 11:52 11,2 C 16,1 C 11,1 C 67 % 1005,1 hPa 0,0 l/m 2 min 0 min 615 W/m 12,9 km/h (3 Bft) 97,87 %
30.03.2022 11:54 11,2 C 16,1 C 11,7 C 66 % 1005,1 hPa 0,0 l/m 2 min 0 min 615 W/m 12,9 km/h (3 Bft) 97,87 %
30.03.2022 11:56 11,3 C 16,7 C 12,2 C 67 % 1005,1 hPa 0,0 l/m 2 min 0 min 614 W/m 9,7 km/h (2 Bft) 97,87 %
30.03.2022 11:58 11,4 C 16,7 C 12,2 C 67 % 1005,1 hPa 0,0 l/m 2 min 0 min 616 W/m 25,7 km/h (4 Bft) 97,87 %
30.03.2022 12:00 11,6 C 17,2 C 12,8 C 67 % 1005,1 hPa 0,0 l/m 2 min 0 min 617 W/m 12,9 km/h (3 Bft) 97,87 %
30.03.2022 12:02 11,6 C 17,8 C 12,8 C 67 % 1005,0 hPa 0,0 l/m 2 min 0 min 619 W/m 6,4 km/h (2 Bft) 95,65 %
30.03.2022 12:04 11,8 C 17,2 C 13,9 C 66 % 1005,0 hPa 0,0 l/m 2 min 0 min 618 W/m 12,9 km/h (3 Bft) 95,74 %
30.03.2022 12:08 12,0 C 17,8 C 13,9 C 65 % 1005,0 hPa 0,0 l/m 4 min 0 min 618 W/m 16,1 km/h (3 Bft) 96,81 %
30.03.2022 12:10 12,1 C 17,2 C 13,9 C 64 % 1005,0 hPa 0,0 l/m 2 min 0 min 631 W/m 19,3 km/h (3 Bft) 100,00 %
30.03.2022 12:12 12,1 C 17,2 C 13,9 C 64 % 1005,0 hPa 0,0 l/m 2 min 0 min 645 W/m 19,3 km/h (3 Bft) 100,00 %
30.03.2022 12:14 12,2 C 17,8 C 13,3 C 65 % 1005,0 hPa 0,0 l/m 2 min 0 min 648 W/m 9,7 km/h (2 Bft) 100,00 %
30.03.2022 12:16 12,3 C 18,3 C 13,3 C 65 % 1005,0 hPa 0,0 l/m 2 min 0 min 643 W/m 9,7 km/h (2 Bft) 97,87 %
30.03.2022 12:18 12,4 C 17,8 C 13,3 C 63 % 1004,9 hPa 0,0 l/m 2 min 0 min 639 W/m 16,1 km/h (3 Bft) 97,87 %
30.03.2022 12:20 12,4 C 18,9 C 13,9 C 64 % 1005,0 hPa 0,0 l/m 2 min 0 min 641 W/m 25,7 km/h (4 Bft) 100,00 %
30.03.2022 12:22 12,5 C 18,9 C 13,9 C 63 % 1004,9 hPa 0,0 l/m 2 min 0 min 639 W/m 16,1 km/h (3 Bft) 100,00 %
30.03.2022 12:24 12,5 C 17,8 C 13,3 C 63 % 1004,9 hPa 0,0 l/m 2 min 0 min 645 W/m 16,1 km/h (3 Bft) 100,00 %
30.03.2022 12:26 12,6 C 18,3 C 13,3 C 63 % 1004,9 hPa 0,0 l/m 2 min 0 min 638 W/m 16,1 km/h (3 Bft) 97,83 %
30.03.2022 12:28 12,5 C 18,3 C 13,3 C 63 % 1004,9 hPa 0,0 l/m 2 min 0 min 640 W/m 19,3 km/h (3 Bft) 100,00 %
30.03.2022 12:30 12,6 C 18,3 C 13,9 C 63 % 1004,8 hPa 0,0 l/m 2 min 0 min 639 W/m 16,1 km/h (3 Bft) 100,00 %
30.03.2022 12:32 12,6 C 18,3 C 13,3 C 62 % 1004,8 hPa 0,0 l/m 2 min 0 min 655 W/m 12,9 km/h (3 Bft) 100,00 %
30.03.2022 12:34 12,6 C 18,3 C 13,9 C 62 % 1004,8 hPa 0,0 l/m 2 min 0 min 660 W/m 9,7 km/h (2 Bft) 100,00 %
30.03.2022 12:36 12,6 C 18,3 C 13,9 C 62 % 1004,8 hPa 0,0 l/m 2 min 0 min 662 W/m 19,3 km/h (3 Bft) 97,87 %
30.03.2022 12:38 12,6 C 18,3 C 14,4 C 61 % 1004,7 hPa 0,0 l/m 2 min 0 min 661 W/m 12,9 km/h (3 Bft) 100,00 %
30.03.2022 12:40 12,6 C 18,3 C 14,4 C 61 % 1004,7 hPa 0,0 l/m 2 min 0 min 662 W/m 22,5 km/h (4 Bft) 100,00 %
30.03.2022 12:42 12,6 C 17,8 C 15,0 C 62 % 1004,7 hPa 0,0 l/m 2 min 0 min 667 W/m 12,9 km/h (3 Bft) 97,87 %
30.03.2022 12:44 12,6 C 17,8 C 13,9 C 62 % 1004,6 hPa 0,0 l/m 2 min 0 min 669 W/m 9,7 km/h (2 Bft) 97,87 %
30.03.2022 12:46 12,6 C 17,8 C 13,9 C 61 % 1004,6 hPa 0,0 l/m 2 min 0 min 672 W/m 19,3 km/h (3 Bft) 95,74 %
30.03.2022 12:48 12,6 C 18,3 C 13,9 C 61 % 1004,5 hPa 0,0 l/m 2 min 0 min 669 W/m 12,9 km/h (3 Bft) 97,87 %
30.03.2022 12:50 12,6 C 17,8 C 13,9 C 61 % 1004,5 hPa 0,0 l/m 2 min 0 min 669 W/m 16,1 km/h (3 Bft) 97,87 %
30.03.2022 12:52 12,6 C 17,8 C 12,8 C 62 % 1004,5 hPa 0,0 l/m 2 min 0 min 662 W/m 12,9 km/h (3 Bft) 95,65 %
30.03.2022 12:54 12,7 C 17,8 C 12,8 C 62 % 1004,5 hPa 0,0 l/m 2 min 0 min 670 W/m 16,1 km/h (3 Bft) 97,87 %
30.03.2022 12:56 12,7 C 17,8 C 12,2 C 62 % 1004,5 hPa 0,0 l/m 2 min 0 min 666 W/m 9,7 km/h (2 Bft) 97,87 %
30.03.2022 12:58 12,8 C 17,8 C 11,1 C 63 % 1004,5 hPa 0,0 l/m 2 min 0 min 669 W/m 12,9 km/h (3 Bft) 97,87 %
30.03.2022 13:00 12,8 C 17,8 C 11,1 C 62 % 1004,5 hPa 0,0 l/m 2 min 0 min 675 W/m 9,7 km/h (2 Bft) 97,87 %
30.03.2022 13:02 12,8 C 17,8 C 11,1 C 62 % 1004,5 hPa 0,0 l/m 2 min 0 min 682 W/m 12,9 km/h (3 Bft) 97,83 %
30.03.2022 13:04 12,9 C 17,8 C 11,1 C 63 % 1004,5 hPa 0,0 l/m 2 min 0 min 685 W/m 16,1 km/h (3 Bft) 95,74 %
30.03.2022 13:06 13,0 C 16,7 C 11,1 C 62 % 1004,5 hPa 0,0 l/m 2 min 0 min 689 W/m 9,7 km/h (2 Bft) 97,87 %
30.03.2022 13:08 13,0 C 16,7 C 10,6 C 61 % 1004,4 hPa 0,0 l/m 2 min 0 min 688 W/m 12,9 km/h (3 Bft) 95,74 %
30.03.2022 13:10 13,0 C 16,7 C 10,6 C 62 % 1004,4 hPa 0,0 l/m 2 min 0 min 685 W/m 12,9 km/h (3 Bft) 95,74 %
30.03.2022 13:12 13,0 C 16,1 C 10,0 C 61 % 1004,4 hPa 0,0 l/m 2 min 0 min 682 W/m 22,5 km/h (4 Bft) 100,00 %
30.03.2022 13:14 13,1 C 16,1 C 10,0 C 61 % 1004,4 hPa 0,0 l/m 2 min 0 min 688 W/m 9,7 km/h (2 Bft) 100,00 %
30.03.2022 13:16 13,1 C 16,7 C 10,6 C 62 % 1004,3 hPa 0,0 l/m 2 min 0 min 695 W/m 6,4 km/h (2 Bft) 97,87 %
30.03.2022 13:18 13,2 C 16,7 C 11,1 C 62 % 1004,3 hPa 0,0 l/m 2 min 0 min 698 W/m 16,1 km/h (3 Bft) 100,00 %
30.03.2022 13:20 13,2 C 16,7 C 11,1 C 62 % 1004,2 hPa 0,0 l/m 2 min 0 min 699 W/m 9,7 km/h (2 Bft) 100,00 %
30.03.2022 13:22 13,2 C 17,2 C 11,1 C 61 % 1004,2 hPa 0,0 l/m 2 min 0 min 699 W/m 12,9 km/h (3 Bft) 100,00 %
30.03.2022 13:24 13,3 C 17,8 C 11,1 C 62 % 1004,2 hPa 0,0 l/m 2 min 0 min 693 W/m 12,9 km/h (3 Bft) 100,00 %
30.03.2022 13:26 13,4 C 18,3 C 11,7 C 62 % 1004,2 hPa 0,0 l/m 2 min 0 min 696 W/m 12,9 km/h (3 Bft) 100,00 %
30.03.2022 13:28 13,4 C 17,8 C 11,7 C 61 % 1004,2 hPa 0,0 l/m 2 min 0 min 697 W/m 6,4 km/h (2 Bft) 100,00 %
30.03.2022 13:30 13,5 C 17,8 C 11,1 C 60 % 1004,2 hPa 0,0 l/m 2 min 0 min 689 W/m 6,4 km/h (2 Bft) 100,00 %
30.03.2022 13:32 13,6 C 18,3 C 10,6 C 60 % 1004,2 hPa 0,0 l/m 2 min 0 min 695 W/m 12,9 km/h (3 Bft) 100,00 %
30.03.2022 13:34 13,6 C 18,3 C 10,6 C 60 % 1004,2 hPa 0,0 l/m 2 min 0 min 691 W/m 19,3 km/h (3 Bft) 97,87 %
30.03.2022 13:36 13,6 C 18,9 C 10,6 C 59 % 1004,1 hPa 0,0 l/m 2 min 0 min 685 W/m 19,3 km/h (3 Bft) 100,00 %
30.03.2022 13:38 13,6 C 19,4 C 11,1 C 59 % 1004,1 hPa 0,0 l/m 2 min 0 min 695 W/m 16,1 km/h (3 Bft) 97,87 %
30.03.2022 13:40 13,7 C 20,0 C 11,1 C 60 % 1004,1 hPa 0,0 l/m 2 min 0 min 676 W/m 9,7 km/h (2 Bft) 100,00 %
30.03.2022 13:42 13,7 C 20,0 C 11,1 C 59 % 1004,1 hPa 0,0 l/m 2 min 0 min 700 W/m 12,9 km/h (3 Bft) 97,87 %
30.03.2022 13:44 13,8 C 20,6 C 11,1 C 58 % 1004,1 hPa 0,0 l/m 2 min 0 min 710 W/m 19,3 km/h (3 Bft) 100,00 %
30.03.2022 13:46 13,8 C 21,1 C 10,6 C 59 % 1003,9 hPa 0,0 l/m 2 min 0 min 702 W/m 6,4 km/h (2 Bft) 100,00 %
30.03.2022 13:48 13,8 C 21,7 C 10,6 C 59 % 1003,9 hPa 0,0 l/m 2 min 0 min 695 W/m 9,7 km/h (2 Bft) 100,00 %
30.03.2022 13:50 14,0 C 22,2 C 10,6 C 60 % 1003,9 hPa 0,0 l/m 2 min 0 min 704 W/m 9,7 km/h (2 Bft) 100,00 %
30.03.2022 13:52 14,2 C 22,2 C 10,6 C 59 % 1003,9 hPa 0,0 l/m 2 min 0 min 713 W/m 16,1 km/h (3 Bft) 100,00 %
30.03.2022 13:54 14,2 C 21,1 C 10,6 C 58 % 1003,9 hPa 0,0 l/m 2 min 0 min 699 W/m 19,3 km/h (3 Bft) 100,00 %
30.03.2022 13:56 14,2 C 20,6 C 10,0 C 58 % 1003,9 hPa 0,0 l/m 2 min 0 min 702 W/m 12,9 km/h (3 Bft) 100,00 %
30.03.2022 13:58 14,1 C 20,0 C 10,0 C 57 % 1003,9 hPa 0,0 l/m 2 min 0 min 692 W/m 16,1 km/h (3 Bft) 100,00 %
30.03.2022 14:00 14,0 C 20,0 C 10,0 C 58 % 1003,9 hPa 0,0 l/m 2 min 0 min 702 W/m 16,1 km/h (3 Bft) 100,00 %
30.03.2022 14:02 14,0 C 21,1 C 10,0 C 59 % 1003,9 hPa 0,0 l/m 2 min 0 min 701 W/m 12,9 km/h (3 Bft) 100,00 %
30.03.2022 14:04 14,1 C 21,1 C 10,6 C 59 % 1003,9 hPa 0,0 l/m 2 min 0 min 701 W/m 19,3 km/h (3 Bft) 95,74 %
30.03.2022 14:06 14,2 C 21,7 C 10,6 C 60 % 1003,9 hPa 0,0 l/m 2 min 0 min 717 W/m 12,9 km/h (3 Bft) 97,87 %
30.03.2022 14:08 14,2 C 20,6 C 10,0 C 58 % 1003,9 hPa 0,0 l/m 2 min 0 min 721 W/m 16,1 km/h (3 Bft) 100,00 %
30.03.2022 14:10 14,3 C 21,7 C 10,6 C 59 % 1003,8 hPa 0,0 l/m 2 min 0 min 724 W/m 9,7 km/h (2 Bft) 97,87 %
30.03.2022 14:12 14,3 C 21,7 C 10,6 C 57 % 1003,8 hPa 0,0 l/m 2 min 0 min 730 W/m 12,9 km/h (3 Bft) 97,83 %
30.03.2022 14:14 14,3 C 21,7 C 10,6 C 57 % 1003,8 hPa 0,0 l/m 2 min 0 min 738 W/m 12,9 km/h (3 Bft) 97,87 %
30.03.2022 14:16 14,4 C 22,2 C 10,6 C 57 % 1003,7 hPa 0,0 l/m 2 min 0 min 741 W/m 16,1 km/h (3 Bft) 100,00 %
30.03.2022 14:18 14,4 C 21,7 C 10,6 C 57 % 1003,8 hPa 0,0 l/m 2 min 0 min 731 W/m 19,3 km/h (3 Bft) 97,87 %
30.03.2022 14:20 14,4 C 22,2 C 10,6 C 57 % 1003,7 hPa 0,0 l/m 2 min 0 min 743 W/m 12,9 km/h (3 Bft) 97,87 %
30.03.2022 14:22 14,5 C 22,2 C 10,6 C 57 % 1003,7 hPa 0,0 l/m 2 min 0 min 665 W/m 12,9 km/h (3 Bft) 95,74 %
30.03.2022 14:24 14,6 C 23,3 C 10,6 C 57 % 1003,7 hPa 0,0 l/m 2 min 0 min 770 W/m 9,7 km/h (2 Bft) 97,83 %
30.03.2022 14:26 14,7 C 23,9 C 11,1 C 58 % 1003,7 hPa 0,0 l/m 2 min 0 min 752 W/m 9,7 km/h (2 Bft) 97,87 %
30.03.2022 14:28 14,7 C 21,7 C 10,6 C 56 % 1003,7 hPa 0,0 l/m 2 min 0 min 733 W/m 9,7 km/h (2 Bft) 97,87 %
30.03.2022 14:30 14,6 C 20,0 C 10,6 C 57 % 1003,8 hPa 0,0 l/m 2 min 0 min 378 W/m 16,1 km/h (3 Bft) 95,74 %
30.03.2022 14:32 14,6 C 19,4 C 10,6 C 57 % 1003,7 hPa 0,0 l/m 2 min 0 min 435 W/m 19,3 km/h (3 Bft) 97,87 %
30.03.2022 14:34 14,4 C 19,4 C 10,6 C 57 % 1003,7 hPa 0,0 l/m 2 min 0 min 688 W/m 12,9 km/h (3 Bft) 97,87 %
30.03.2022 14:36 14,4 C 20,0 C 10,6 C 57 % 1003,6 hPa 0,0 l/m 2 min 0 min 700 W/m 12,9 km/h (3 Bft) 97,83 %
30.03.2022 14:38 14,3 C 20,6 C 10,0 C 57 % 1003,6 hPa 0,0 l/m 2 min 0 min 705 W/m 9,7 km/h (2 Bft) 95,74 %
30.03.2022 14:40 14,3 C 21,7 C 10,6 C 58 % 1003,5 hPa 0,0 l/m 2 min 0 min 726 W/m 19,3 km/h (3 Bft) 95,74 %
30.03.2022 14:42 14,3 C 21,1 C 10,6 C 57 % 1003,5 hPa 0,0 l/m 2 min 0 min 730 W/m 22,5 km/h (4 Bft) 95,74 %
30.03.2022 14:44 14,3 C 18,9 C 10,6 C 57 % 1003,5 hPa 0,0 l/m 2 min 0 min 525 W/m 16,1 km/h (3 Bft) 95,74 %
30.03.2022 14:46 14,2 C 18,9 C 10,6 C 57 % 1003,5 hPa 0,0 l/m 2 min 0 min 487 W/m 19,3 km/h (3 Bft) 95,74 %
30.03.2022 14:48 14,2 C 19,4 C 10,6 C 58 % 1003,5 hPa 0,0 l/m 2 min 0 min 675 W/m 12,9 km/h (3 Bft) 95,65 %
30.03.2022 14:50 14,2 C 20,6 C 10,6 C 57 % 1003,4 hPa 0,0 l/m 2 min 0 min 688 W/m 16,1 km/h (3 Bft) 95,74 %
30.03.2022 14:52 14,3 C 21,1 C 10,6 C 58 % 1003,4 hPa 0,0 l/m 2 min 0 min 683 W/m 9,7 km/h (2 Bft) 95,74 %
30.03.2022 14:54 14,3 C 21,7 C 10,6 C 59 % 1003,4 hPa 0,0 l/m 2 min 0 min 697 W/m 25,7 km/h (4 Bft) 95,74 %
30.03.2022 14:56 14,4 C 21,1 C 10,6 C 57 % 1003,3 hPa 0,0 l/m 2 min 0 min 709 W/m 16,1 km/h (3 Bft) 95,74 %
30.03.2022 14:58 14,5 C 21,1 C 10,6 C 58 % 1003,4 hPa 0,0 l/m 2 min 0 min 680 W/m 16,1 km/h (3 Bft) 93,62 %
30.03.2022 15:00 14,5 C 20,6 C 10,6 C 57 % 1003,3 hPa 0,0 l/m 2 min 0 min 602 W/m 9,7 km/h (2 Bft) 95,65 %
30.03.2022 15:02 14,4 C 18,9 C 10,0 C 57 % 1003,3 hPa 0,0 l/m 0 min 0 min 275 W/m 12,9 km/h (3 Bft) 95,74 %
30.03.2022 15:04 14,3 C 18,9 C 10,0 C 57 % 1003,2 hPa 0,0 l/m 2 min 0 min 337 W/m 9,7 km/h (2 Bft) 95,74 %
30.03.2022 15:06 14,3 C 20,0 C 10,6 C 58 % 1003,2 hPa 0,0 l/m 2 min 0 min 699 W/m 16,1 km/h (3 Bft) 97,87 %
30.03.2022 15:08 14,4 C 21,1 C 10,6 C 58 % 1003,1 hPa 0,0 l/m 2 min 0 min 703 W/m 9,7 km/h (2 Bft) 93,62 %
30.03.2022 15:10 14,6 C 21,1 C 11,1 C 59 % 1003,1 hPa 0,0 l/m 2 min 0 min 712 W/m 19,3 km/h (3 Bft) 97,87 %
30.03.2022 15:12 14,7 C 21,7 C 11,1 C 58 % 1003,1 hPa 0,0 l/m 2 min 0 min 692 W/m 12,9 km/h (3 Bft) 97,83 %
30.03.2022 15:14 14,8 C 21,1 C 11,1 C 56 % 1003,1 hPa 0,0 l/m 2 min 0 min 616 W/m 22,5 km/h (4 Bft) 97,87 %
30.03.2022 15:16 14,7 C 18,9 C 10,6 C 56 % 1003,0 hPa 0,0 l/m 2 min 0 min 500 W/m 12,9 km/h (3 Bft) 95,74 %
30.03.2022 15:18 14,6 C 18,9 C 10,6 C 56 % 1003,1 hPa 0,0 l/m 2 min 0 min 362 W/m 19,3 km/h (3 Bft) 97,87 %
30.03.2022 15:20 14,5 C 20,0 C 10,6 C 57 % 1003,0 hPa 0,0 l/m 2 min 0 min 645 W/m 12,9 km/h (3 Bft) 97,87 %
30.03.2022 15:22 14,4 C 21,1 C 10,0 C 57 % 1003,0 hPa 0,0 l/m 2 min 0 min 659 W/m 9,7 km/h (2 Bft) 100,00 %
30.03.2022 15:24 14,3 C 21,1 C 10,0 C 56 % 1002,9 hPa 0,0 l/m 2 min 0 min 671 W/m 12,9 km/h (3 Bft) 100,00 %
30.03.2022 15:26 14,3 C 21,1 C 10,6 C 57 % 1002,9 hPa 0,0 l/m 2 min 0 min 673 W/m 19,3 km/h (3 Bft) 97,87 %
30.03.2022 15:28 14,3 C 21,1 C 10,6 C 57 % 1002,9 hPa 0,0 l/m 2 min 0 min 667 W/m 29,0 km/h (5 Bft) 97,87 %
30.03.2022 15:30 14,3 C 21,1 C 10,6 C 57 % 1002,9 hPa 0,0 l/m 2 min 0 min 665 W/m 16,1 km/h (3 Bft) 100,00 %
30.03.2022 15:32 14,3 C 21,1 C 10,6 C 58 % 1002,9 hPa 0,0 l/m 2 min 0 min 629 W/m 22,5 km/h (4 Bft) 97,87 %
30.03.2022 15:34 14,4 C 21,1 C 10,6 C 58 % 1002,8 hPa 0,0 l/m 2 min 0 min 622 W/m 12,9 km/h (3 Bft) 100,00 %
30.03.2022 15:36 14,3 C 20,0 C 10,6 C 57 % 1002,8 hPa 0,0 l/m 2 min 0 min 530 W/m 12,9 km/h (3 Bft) 100,00 %
30.03.2022 15:38 14,3 C 20,0 C 10,6 C 57 % 1002,8 hPa 0,0 l/m 2 min 0 min 537 W/m 9,7 km/h (2 Bft) 95,74 %
30.03.2022 15:40 14,4 C 20,6 C 10,6 C 58 % 1002,8 hPa 0,0 l/m 2 min 0 min 646 W/m 9,7 km/h (2 Bft) 97,87 %
30.03.2022 15:42 14,6 C 21,1 C 10,6 C 58 % 1002,8 hPa 0,0 l/m 2 min 0 min 652 W/m 16,1 km/h (3 Bft) 97,87 %
30.03.2022 15:44 14,7 C 21,7 C 11,1 C 58 % 1002,7 hPa 0,0 l/m 2 min 0 min 630 W/m 12,9 km/h (3 Bft) 97,87 %
30.03.2022 15:46 14,8 C 21,1 C 10,6 C 57 % 1002,7 hPa 0,0 l/m 2 min 0 min 530 W/m 12,9 km/h (3 Bft) 97,83 %
30.03.2022 15:48 14,7 C 20,0 C 10,6 C 56 % 1002,7 hPa 0,0 l/m 2 min 0 min 496 W/m 12,9 km/h (3 Bft) 97,87 %
30.03.2022 15:50 14,6 C 19,4 C 10,6 C 57 % 1002,7 hPa 0,0 l/m 2 min 0 min 480 W/m 12,9 km/h (3 Bft) 97,87 %
30.03.2022 15:52 14,6 C 19,4 C 10,6 C 57 % 1002,6 hPa 0,0 l/m 2 min 0 min 590 W/m 16,1 km/h (3 Bft) 97,87 %
30.03.2022 15:54 14,5 C 18,9 C 10,6 C 57 % 1002,6 hPa 0,0 l/m 2 min 0 min 422 W/m 16,1 km/h (3 Bft) 97,87 %
30.03.2022 15:56 14,4 C 18,3 C 10,0 C 56 % 1002,6 hPa 0,0 l/m 2 min 0 min 379 W/m 12,9 km/h (3 Bft) 97,87 %
30.03.2022 15:58 14,3 C 18,3 C 10,0 C 56 % 1002,6 hPa 0,0 l/m 2 min 0 min 538 W/m 19,3 km/h (3 Bft) 97,83 %
30.03.2022 16:00 14,3 C 18,3 C 10,6 C 57 % 1002,6 hPa 0,0 l/m 2 min 0 min 580 W/m 19,3 km/h (3 Bft) 95,74 %
30.03.2022 16:02 14,3 C 17,2 C 10,6 C 57 % 1002,5 hPa 0,0 l/m 2 min 0 min 388 W/m 9,7 km/h (2 Bft) 95,45 %
30.03.2022 16:04 14,3 C 16,7 C 10,0 C 57 % 1002,6 hPa 0,0 l/m 0 min 0 min 256 W/m 12,9 km/h (3 Bft) 97,96 %
30.03.2022 16:06 14,2 C 16,1 C 10,0 C 58 % 1002,5 hPa 0,0 l/m 0 min 0 min 259 W/m 19,3 km/h (3 Bft) 97,92 %
30.03.2022 16:08 13,9 C 16,1 C 10,0 C 57 % 1002,5 hPa 0,0 l/m 2 min 0 min 272 W/m 19,3 km/h (3 Bft) 95,74 %
30.03.2022 16:10 13,9 C 18,3 C 10,0 C 58 % 1002,4 hPa 0,0 l/m 2 min 0 min 357 W/m 12,9 km/h (3 Bft) 95,65 %
30.03.2022 16:12 13,9 C 17,2 C 10,0 C 58 % 1002,4 hPa 0,0 l/m 2 min 0 min 513 W/m 12,9 km/h (3 Bft) 97,73 %
30.03.2022 16:14 13,9 C 18,9 C 10,6 C 59 % 1002,3 hPa 0,0 l/m 0 min 0 min 262 W/m 16,1 km/h (3 Bft) 98,00 %
30.03.2022 16:16 14,0 C 19,4 C 10,6 C 58 % 1002,3 hPa 0,0 l/m 2 min 0 min 490 W/m 16,1 km/h (3 Bft) 97,87 %
30.03.2022 16:18 14,1 C 20,0 C 10,6 C 59 % 1002,4 hPa 0,0 l/m 2 min 0 min 537 W/m 19,3 km/h (3 Bft) 97,87 %
30.03.2022 16:20 14,2 C 20,0 C 10,6 C 58 % 1002,3 hPa 0,0 l/m 2 min 0 min 505 W/m 9,7 km/h (2 Bft) 95,35 %
30.03.2022 16:22 14,2 C 18,3 C 10,6 C 57 % 1002,3 hPa 0,0 l/m 2 min 0 min 394 W/m 16,1 km/h (3 Bft) 98,00 %
30.03.2022 16:24 14,2 C 17,2 C 10,6 C 57 % 1002,3 hPa 0,0 l/m 0 min 0 min 217 W/m 6,4 km/h (2 Bft) 97,87 %
30.03.2022 16:26 14,0 C 16,1 C 10,0 C 57 % 1002,3 hPa 0,0 l/m 0 min 0 min 218 W/m 29,0 km/h (5 Bft) 97,87 %
30.03.2022 16:28 13,9 C 15,6 C 10,0 C 58 % 1002,3 hPa 0,0 l/m 0 min 0 min 204 W/m 19,3 km/h (3 Bft) 97,67 %
30.03.2022 16:30 13,8 C 15,0 C 9,4 C 58 % 1002,3 hPa 0,0 l/m 0 min 0 min 199 W/m 9,7 km/h (2 Bft) 96,00 %
30.03.2022 16:32 13,6 C 14,4 C 9,4 C 57 % 1002,3 hPa 0,0 l/m 0 min 0 min 206 W/m 9,7 km/h (2 Bft) 97,87 %
30.03.2022 16:34 13,6 C 15,0 C 9,4 C 59 % 1002,2 hPa 0,0 l/m 2 min 0 min 282 W/m 9,7 km/h (2 Bft) 95,74 %
30.03.2022 16:36 13,5 C 15,6 C 9,4 C 58 % 1002,2 hPa 0,0 l/m 2 min 0 min 323 W/m 16,1 km/h (3 Bft) 97,87 %
30.03.2022 16:38 13,4 C 16,1 C 9,4 C 58 % 1002,2 hPa 0,0 l/m 2 min 0 min 366 W/m 16,1 km/h (3 Bft) 97,73 %
30.03.2022 16:40 13,4 C 16,7 C 10,0 C 59 % 1002,1 hPa 0,0 l/m 2 min 0 min 370 W/m 16,1 km/h (3 Bft) 97,83 %
30.03.2022 16:42 13,5 C 16,7 C 10,0 C 59 % 1002,2 hPa 0,0 l/m 2 min 0 min 273 W/m 12,9 km/h (3 Bft) 100,00 %
30.03.2022 16:44 13,4 C 15,6 C 10,0 C 59 % 1002,1 hPa 0,0 l/m 0 min 0 min 225 W/m 12,9 km/h (3 Bft) 100,00 %
30.03.2022 16:46 13,4 C 15,0 C 9,4 C 58 % 1002,1 hPa 0,0 l/m 0 min 0 min 207 W/m 16,1 km/h (3 Bft) 97,83 %
30.03.2022 16:48 13,3 C 15,0 C 9,4 C 59 % 1002,1 hPa 0,0 l/m 2 min 0 min 238 W/m 12,9 km/h (3 Bft) 100,00 %
30.03.2022 16:50 13,3 C 15,0 C 9,4 C 59 % 1002,1 hPa 0,0 l/m 0 min 0 min 223 W/m 16,1 km/h (3 Bft) 100,00 %
30.03.2022 16:52 13,3 C 14,4 C 9,4 C 59 % 1002,1 hPa 0,0 l/m 0 min 0 min 218 W/m 16,1 km/h (3 Bft) 97,92 %
30.03.2022 16:54 13,3 C 14,4 C 9,4 C 59 % 1002,1 hPa 0,0 l/m 0 min 0 min 210 W/m 12,9 km/h (3 Bft) 100,00 %
30.03.2022 16:56 13,2 C 14,4 C 9,4 C 59 % 1002,1 hPa 0,0 l/m 0 min 0 min 214 W/m 19,3 km/h (3 Bft) 100,00 %
30.03.2022 16:58 13,2 C 14,4 C 9,4 C 59 % 1002,1 hPa 0,0 l/m 2 min 0 min 248 W/m 12,9 km/h (3 Bft) 100,00 %
30.03.2022 17:00 13,1 C 13,9 C 9,4 C 59 % 1002,1 hPa 0,0 l/m 2 min 0 min 259 W/m 19,3 km/h (3 Bft) 98,00 %
30.03.2022 17:02 13,1 C 14,4 C 9,4 C 59 % 1002,1 hPa 0,0 l/m 2 min 0 min 261 W/m 19,3 km/h (3 Bft) 97,87 %
30.03.2022 17:04 13,0 C 14,4 C 9,4 C 59 % 1002,1 hPa 0,0 l/m 2 min 0 min 259 W/m 22,5 km/h (4 Bft) 97,87 %
30.03.2022 17:06 13,0 C 14,4 C 9,4 C 60 % 1002,1 hPa 0,0 l/m 2 min 0 min 263 W/m 19,3 km/h (3 Bft) 97,67 %
30.03.2022 17:08 12,9 C 13,9 C 9,4 C 58 % 1002,1 hPa 0,0 l/m 2 min 0 min 265 W/m 19,3 km/h (3 Bft) 98,00 %
30.03.2022 17:10 12,9 C 14,4 C 9,4 C 59 % 1002,0 hPa 0,0 l/m 2 min 0 min 271 W/m 12,9 km/h (3 Bft) 97,87 %
30.03.2022 17:12 13,0 C 15,0 C 9,4 C 59 % 1002,0 hPa 0,0 l/m 2 min 0 min 276 W/m 12,9 km/h (3 Bft) 97,87 %
30.03.2022 17:14 13,1 C 15,0 C 9,4 C 60 % 1002,0 hPa 0,0 l/m 2 min 0 min 282 W/m 16,1 km/h (3 Bft) 95,74 %
30.03.2022 17:16 13,1 C 15,0 C 9,4 C 60 % 1002,0 hPa 0,0 l/m 2 min 0 min 257 W/m 16,1 km/h (3 Bft) 93,62 %
30.03.2022 17:18 13,1 C 15,0 C 9,4 C 60 % 1002,0 hPa 0,0 l/m 2 min 0 min 250 W/m 9,7 km/h (2 Bft) 95,35 %
30.03.2022 17:20 13,1 C 14,4 C 9,4 C 60 % 1002,0 hPa 0,0 l/m 2 min 0 min 223 W/m 16,1 km/h (3 Bft) 96,00 %
30.03.2022 17:22 13,1 C 14,4 C 9,4 C 60 % 1002,0 hPa 0,0 l/m 0 min 0 min 197 W/m 19,3 km/h (3 Bft) 95,74 %
30.03.2022 17:24 13,1 C 13,9 C 8,9 C 59 % 1002,0 hPa 0,0 l/m 0 min 0 min 188 W/m 19,3 km/h (3 Bft) 95,74 %
30.03.2022 17:26 13,0 C 13,3 C 8,9 C 59 % 1002,0 hPa 0,0 l/m 0 min 0 min 186 W/m 16,1 km/h (3 Bft) 93,18 %
30.03.2022 17:28 12,9 C 13,3 C 8,9 C 59 % 1002,0 hPa 0,0 l/m 0 min 0 min 180 W/m 12,9 km/h (3 Bft) 95,92 %
30.03.2022 17:30 12,9 C 13,3 C 8,9 C 59 % 1001,9 hPa 0,0 l/m 0 min 0 min 175 W/m 12,9 km/h (3 Bft) 95,83 %
30.03.2022 17:32 12,8 C 13,3 C 8,9 C 59 % 1001,9 hPa 0,0 l/m 0 min 0 min 178 W/m 16,1 km/h (3 Bft) 95,65 %
30.03.2022 17:34 12,8 C 13,3 C 8,9 C 60 % 1001,9 hPa 0,0 l/m 2 min 0 min 189 W/m 9,7 km/h (2 Bft) 93,18 %
30.03.2022 17:36 12,7 C 13,3 C 8,9 C 60 % 1001,9 hPa 0,0 l/m 2 min 0 min 211 W/m 12,9 km/h (3 Bft) 96,00 %
30.03.2022 17:38 12,7 C 13,9 C 8,9 C 60 % 1001,9 hPa 0,0 l/m 2 min 0 min 220 W/m 16,1 km/h (3 Bft) 95,65 %
30.03.2022 17:40 12,7 C 13,9 C 8,9 C 60 % 1001,9 hPa 0,0 l/m 2 min 0 min 203 W/m 19,3 km/h (3 Bft) 95,74 %
30.03.2022 17:42 12,7 C 13,3 C 8,9 C 59 % 1001,9 hPa 0,0 l/m 2 min 0 min 186 W/m 12,9 km/h (3 Bft) 97,92 %
30.03.2022 17:44 12,6 C 13,9 C 8,9 C 60 % 1001,8 hPa 0,0 l/m 2 min 0 min 203 W/m 9,7 km/h (2 Bft) 97,83 %
30.03.2022 17:46 12,6 C 13,9 C 8,9 C 60 % 1001,9 hPa 0,0 l/m 2 min 0 min 200 W/m 19,3 km/h (3 Bft) 97,73 %
30.03.2022 17:48 12,6 C 13,9 C 8,9 C 60 % 1001,8 hPa 0,0 l/m 2 min 0 min 187 W/m 6,4 km/h (2 Bft) 97,96 %
30.03.2022 17:50 12,6 C 13,9 C 8,9 C 61 % 1001,8 hPa 0,0 l/m 2 min 0 min 178 W/m 12,9 km/h (3 Bft) 95,83 %
30.03.2022 17:52 12,6 C 13,3 C 8,9 C 60 % 1001,8 hPa 0,0 l/m 2 min 0 min 164 W/m 16,1 km/h (3 Bft) 95,74 %
30.03.2022 17:54 12,6 C 12,8 C 8,9 C 61 % 1001,8 hPa 0,0 l/m 0 min 0 min 160 W/m 22,5 km/h (4 Bft) 97,67 %
30.03.2022 17:56 12,5 C 12,8 C 8,9 C 61 % 1001,8 hPa 0,0 l/m 0 min 0 min 148 W/m 25,7 km/h (4 Bft) 98,00 %
30.03.2022 17:58 12,4 C 12,8 C 8,9 C 61 % 1001,9 hPa 0,0 l/m 0 min 0 min 144 W/m 12,9 km/h (3 Bft) 97,87 %
30.03.2022 18:00 12,4 C 12,8 C 8,3 C 61 % 1001,9 hPa 0,0 l/m 0 min 0 min 141 W/m 16,1 km/h (3 Bft) 97,87 %
30.03.2022 18:02 12,4 C 12,8 C 8,3 C 61 % 1001,9 hPa 0,0 l/m 0 min 0 min 139 W/m 16,1 km/h (3 Bft) 100,00 %
30.03.2022 18:04 12,3 C 12,8 C 8,3 C 61 % 1001,8 hPa 0,0 l/m 0 min 0 min 140 W/m 9,7 km/h (2 Bft) 100,00 %
30.03.2022 18:08 12,1 C 12,2 C 8,3 C 61 % 1001,8 hPa 0,0 l/m 0 min 0 min 132 W/m 22,5 km/h (4 Bft) 98,94 %
30.03.2022 18:10 12,1 C 12,2 C 8,3 C 61 % 1001,9 hPa 0,0 l/m 0 min 0 min 117 W/m 19,3 km/h (3 Bft) 100,00 %
30.03.2022 18:12 12,0 C 12,2 C 7,8 C 62 % 1001,9 hPa 0,0 l/m 0 min 0 min 109 W/m 16,1 km/h (3 Bft) 100,00 %
30.03.2022 18:14 12,0 C 11,7 C 8,3 C 62 % 1001,9 hPa 0,0 l/m 0 min 0 min 105 W/m 16,1 km/h (3 Bft) 100,00 %
30.03.2022 18:16 12,0 C 11,7 C 7,8 C 62 % 1001,9 hPa 0,0 l/m 0 min 0 min 104 W/m 19,3 km/h (3 Bft) 97,87 %
30.03.2022 18:18 11,9 C 11,7 C 7,8 C 62 % 1001,9 hPa 0,0 l/m 0 min 0 min 104 W/m 16,1 km/h (3 Bft) 100,00 %
30.03.2022 18:20 11,9 C 11,7 C 7,8 C 62 % 1001,9 hPa 0,0 l/m 0 min 0 min 105 W/m 12,9 km/h (3 Bft) 100,00 %
30.03.2022 18:22 11,9 C 11,7 C 7,8 C 62 % 1001,9 hPa 0,0 l/m 0 min 0 min 103 W/m 16,1 km/h (3 Bft) 100,00 %
30.03.2022 18:24 11,8 C 11,7 C 7,8 C 62 % 1001,9 hPa 0,0 l/m 0 min 0 min 98 W/m 22,5 km/h (4 Bft) 97,96 %
30.03.2022 18:26 11,8 C 11,7 C 7,8 C 63 % 1001,9 hPa 0,0 l/m 0 min 0 min 92 W/m 6,4 km/h (2 Bft) 100,00 %
30.03.2022 18:28 11,8 C 11,7 C 7,8 C 63 % 1001,9 hPa 0,0 l/m 0 min 0 min 84 W/m 9,7 km/h (2 Bft) 100,00 %
30.03.2022 18:30 11,8 C 11,7 C 7,8 C 63 % 1001,9 hPa 0,0 l/m 0 min 0 min 83 W/m 16,1 km/h (3 Bft) 100,00 %
30.03.2022 18:32 11,8 C 11,7 C 7,8 C 63 % 1001,9 hPa 0,0 l/m 0 min 0 min 84 W/m 16,1 km/h (3 Bft) 100,00 %
30.03.2022 18:34 11,7 C 11,7 C 7,8 C 63 % 1001,9 hPa 0,0 l/m 0 min 0 min 84 W/m 16,1 km/h (3 Bft) 97,87 %
30.03.2022 18:36 11,7 C 11,1 C 7,8 C 63 % 1001,8 hPa 0,0 l/m 0 min 0 min 83 W/m 16,1 km/h (3 Bft) 100,00 %
30.03.2022 18:38 11,6 C 11,1 C 7,8 C 63 % 1001,8 hPa 0,0 l/m 0 min 0 min 77 W/m 12,9 km/h (3 Bft) 100,00 %
30.03.2022 18:40 11,6 C 11,1 C 7,8 C 63 % 1001,9 hPa 0,0 l/m 0 min 0 min 73 W/m 9,7 km/h (2 Bft) 100,00 %
30.03.2022 18:42 11,6 C 11,1 C 7,8 C 63 % 1001,8 hPa 0,0 l/m 0 min 0 min 72 W/m 22,5 km/h (4 Bft) 97,67 %
30.03.2022 18:44 11,5 C 11,1 C 7,2 C 64 % 1001,9 hPa 0,0 l/m 0 min 0 min 71 W/m 16,1 km/h (3 Bft) 98,00 %
30.03.2022 18:46 11,4 C 11,1 C 7,2 C 64 % 1001,9 hPa 0,0 l/m 0 min 0 min 69 W/m 22,5 km/h (4 Bft) 95,74 %
30.03.2022 18:48 11,4 C 11,1 C 7,2 C 64 % 1001,9 hPa 0,0 l/m 0 min 0 min 69 W/m 29,0 km/h (5 Bft) 97,87 %
30.03.2022 18:50 11,3 C 11,1 C 7,2 C 64 % 1001,8 hPa 0,0 l/m 0 min 0 min 71 W/m 16,1 km/h (3 Bft) 97,67 %
30.03.2022 18:52 11,3 C 11,1 C 7,2 C 64 % 1001,9 hPa 0,0 l/m 0 min 0 min 75 W/m 12,9 km/h (3 Bft) 98,00 %
30.03.2022 18:54 11,3 C 11,1 C 7,2 C 64 % 1001,9 hPa 0,0 l/m 0 min 0 min 72 W/m 16,1 km/h (3 Bft) 96,00 %
30.03.2022 18:56 11,2 C 11,1 C 7,2 C 64 % 1001,9 hPa 0,0 l/m 0 min 0 min 65 W/m 19,3 km/h (3 Bft) 97,87 %
30.03.2022 18:58 11,2 C 11,1 C 7,2 C 64 % 1002,0 hPa 0,0 l/m 0 min 0 min 57 W/m 12,9 km/h (3 Bft) 97,14 %
30.03.2022 19:00 11,2 C 10,6 C 7,2 C 64 % 1002,0 hPa 0,0 l/m 0 min 0 min 56 W/m 12,9 km/h (3 Bft) 98,18 %
30.03.2022 19:02 11,2 C 10,6 C 7,2 C 64 % 1001,9 hPa 0,0 l/m 0 min 0 min 56 W/m 16,1 km/h (3 Bft) 98,00 %
30.03.2022 19:04 11,2 C 10,6 C 7,2 C 64 % 1001,9 hPa 0,0 l/m 0 min 0 min 52 W/m 12,9 km/h (3 Bft) 94,00 %
30.03.2022 19:06 11,2 C 10,6 C 7,2 C 64 % 1001,9 hPa 0,0 l/m 0 min 0 min 45 W/m 16,1 km/h (3 Bft) 97,22 %
30.03.2022 19:08 11,2 C 10,6 C 6,7 C 64 % 1001,9 hPa 0,0 l/m 0 min 0 min 40 W/m 19,3 km/h (3 Bft) 95,65 %
30.03.2022 19:10 11,1 C 10,6 C 6,7 C 65 % 1001,9 hPa 0,0 l/m 0 min 0 min 36 W/m 16,1 km/h (3 Bft) 95,74 %
30.03.2022 19:12 11,1 C 10,6 C 6,7 C 65 % 1001,9 hPa 0,0 l/m 0 min 0 min 34 W/m 12,9 km/h (3 Bft) 95,74 %
30.03.2022 19:14 11,1 C 10,6 C 6,7 C 65 % 1001,8 hPa 0,0 l/m 0 min 0 min 33 W/m 25,7 km/h (4 Bft) 93,62 %
30.03.2022 19:16 11,1 C 10,6 C 6,7 C 65 % 1001,8 hPa 0,0 l/m 0 min 0 min 31 W/m 12,9 km/h (3 Bft) 94,55 %
30.03.2022 19:18 11,0 C 10,6 C 6,7 C 65 % 1001,8 hPa 0,0 l/m 0 min 0 min 28 W/m 12,9 km/h (3 Bft) 96,00 %
30.03.2022 19:20 10,9 C 10,6 C 6,7 C 65 % 1001,9 hPa 0,0 l/m 0 min 0 min 28 W/m 19,3 km/h (3 Bft) 95,65 %
30.03.2022 19:22 10,9 C 10,0 C 6,7 C 65 % 1001,9 hPa 0,0 l/m 0 min 0 min 26 W/m 25,7 km/h (4 Bft) 94,44 %
30.03.2022 19:24 10,8 C 10,0 C 6,7 C 65 % 1001,9 hPa 0,0 l/m 0 min 0 min 24 W/m 22,5 km/h (4 Bft) 95,74 %
30.03.2022 19:26 10,8 C 10,0 C 6,7 C 65 % 1001,9 hPa 0,0 l/m 0 min 0 min 23 W/m 19,3 km/h (3 Bft) 98,18 %
30.03.2022 19:28 10,8 C 10,0 C 6,1 C 65 % 1001,9 hPa 0,0 l/m 0 min 0 min 21 W/m 22,5 km/h (4 Bft) 98,00 %
30.03.2022 19:30 10,7 C 10,0 C 6,1 C 65 % 1001,9 hPa 0,0 l/m 0 min 0 min 19 W/m 12,9 km/h (3 Bft) 100,00 %
30.03.2022 19:32 10,7 C 10,0 C 6,7 C 66 % 1001,9 hPa 0,0 l/m 0 min 0 min 18 W/m 9,7 km/h (2 Bft) 97,87 %
30.03.2022 19:34 10,7 C 10,0 C 6,7 C 66 % 1001,9 hPa 0,0 l/m 0 min 0 min 16 W/m 6,4 km/h (2 Bft) 97,87 %
30.03.2022 19:36 10,7 C 10,0 C 6,1 C 66 % 1001,9 hPa 0,0 l/m 0 min 0 min 15 W/m 12,9 km/h (3 Bft) 100,00 %
30.03.2022 19:38 10,6 C 10,0 C 6,7 C 66 % 1001,9 hPa 0,0 l/m 0 min 0 min 14 W/m 16,1 km/h (3 Bft) 97,87 %
30.03.2022 19:40 10,6 C 10,0 C 6,1 C 66 % 1001,9 hPa 0,0 l/m 0 min 0 min 12 W/m 12,9 km/h (3 Bft) 98,00 %
30.03.2022 19:42 10,6 C 10,0 C 6,1 C 66 % 1001,9 hPa 0,0 l/m 0 min 0 min 12 W/m 16,1 km/h (3 Bft) 100,00 %
30.03.2022 19:44 10,5 C 10,0 C 6,1 C 66 % 1001,9 hPa 0,0 l/m 0 min 0 min 11 W/m 16,1 km/h (3 Bft) 100,00 %
30.03.2022 19:46 10,5 C 10,0 C 6,1 C 66 % 1002,0 hPa 0,0 l/m 0 min 0 min 11 W/m 9,7 km/h (2 Bft) 100,00 %
30.03.2022 19:48 10,4 C 9,4 C 6,1 C 66 % 1002,0 hPa 0,0 l/m 0 min 0 min 9 W/m 12,9 km/h (3 Bft) 100,00 %
30.03.2022 19:50 10,4 C 9,4 C 6,1 C 67 % 1002,0 hPa 0,0 l/m 0 min 0 min 8 W/m 12,9 km/h (3 Bft) 100,00 %
30.03.2022 19:52 10,3 C 9,4 C 6,1 C 67 % 1002,0 hPa 0,0 l/m 0 min 0 min 7 W/m 9,7 km/h (2 Bft) 100,00 %
30.03.2022 19:54 10,3 C 9,4 C 6,1 C 67 % 1002,0 hPa 0,0 l/m 0 min 0 min 5 W/m 12,9 km/h (3 Bft) 100,00 %
30.03.2022 19:56 10,3 C 9,4 C 5,6 C 67 % 1001,9 hPa 0,0 l/m 0 min 0 min 5 W/m 12,9 km/h (3 Bft) 95,92 %
30.03.2022 19:58 10,2 C 9,4 C 5,6 C 67 % 1001,9 hPa 0,0 l/m 0 min 0 min 1 W/m 16,1 km/h (3 Bft) 100,00 %
30.03.2022 20:00 10,1 C 9,4 C 5,6 C 67 % 1002,0 hPa 0,0 l/m 0 min 0 min 0 W/m 19,3 km/h (3 Bft) 97,87 %
30.03.2022 20:02 10,1 C 9,4 C 5,6 C 67 % 1002,0 hPa 0,0 l/m 0 min 0 min 0 W/m 12,9 km/h (3 Bft) 100,00 %
30.03.2022 20:04 10,1 C 9,4 C 5,6 C 67 % 1002,0 hPa 0,0 l/m 0 min 0 min 0 W/m 9,7 km/h (2 Bft) 100,00 %
30.03.2022 20:06 10,0 C 9,4 C 5,6 C 68 % 1002,0 hPa 0,0 l/m 0 min 0 min 0 W/m 12,9 km/h (3 Bft) 97,14 %
30.03.2022 20:08 10,0 C 9,4 C 5,6 C 68 % 1002,0 hPa 0,0 l/m 0 min 0 min 0 W/m 25,7 km/h (4 Bft) 100,00 %
30.03.2022 20:10 9,9 C 9,4 C 5,6 C 68 % 1002,0 hPa 0,0 l/m 0 min 0 min 0 W/m 19,3 km/h (3 Bft) 100,00 %
30.03.2022 20:12 9,9 C 8,9 C 5,6 C 68 % 1001,9 hPa 0,0 l/m 0 min 0 min 0 W/m 16,1 km/h (3 Bft) 100,00 %
30.03.2022 20:14 9,8 C 8,9 C 5,6 C 68 % 1002,0 hPa 0,0 l/m 0 min 0 min 0 W/m 12,9 km/h (3 Bft) 100,00 %
30.03.2022 20:16 9,8 C 8,9 C 5,6 C 69 % 1002,0 hPa 0,0 l/m 0 min 0 min 0 W/m 12,9 km/h (3 Bft) 100,00 %
30.03.2022 20:18 9,7 C 8,9 C 5,6 C 69 % 1002,0 hPa 0,0 l/m 0 min 0 min 0 W/m 16,1 km/h (3 Bft) 100,00 %
30.03.2022 20:20 9,7 C 8,9 C 5,6 C 69 % 1002,1 hPa 0,0 l/m 0 min 0 min 0 W/m 9,7 km/h (2 Bft) 97,87 %
30.03.2022 20:22 9,7 C 8,9 C 5,0 C 69 % 1002,0 hPa 0,0 l/m 0 min 0 min 0 W/m 12,9 km/h (3 Bft) 98,18 %
30.03.2022 20:24 9,6 C 8,9 C 5,0 C 69 % 1002,0 hPa 0,0 l/m 0 min 0 min 0 W/m 9,7 km/h (2 Bft) 96,00 %
30.03.2022 20:26 9,6 C 8,9 C 5,0 C 69 % 1002,0 hPa 0,0 l/m 0 min 0 min 0 W/m 12,9 km/h (3 Bft) 100,00 %
30.03.2022 20:28 9,6 C 8,9 C 5,0 C 69 % 1002,1 hPa 0,0 l/m 0 min 0 min 0 W/m 6,4 km/h (2 Bft) 97,83 %
30.03.2022 20:30 9,6 C 8,9 C 5,0 C 70 % 1002,1 hPa 0,0 l/m 0 min 0 min 0 W/m 12,9 km/h (3 Bft) 96,36 %
30.03.2022 20:32 9,5 C 8,9 C 5,0 C 70 % 1002,1 hPa 0,0 l/m 0 min 0 min 0 W/m 12,9 km/h (3 Bft) 98,00 %
30.03.2022 20:34 9,4 C 8,9 C 5,0 C 70 % 1002,1 hPa 0,0 l/m 0 min 0 min 0 W/m 19,3 km/h (3 Bft) 97,22 %
30.03.2022 20:36 9,4 C 8,3 C 5,0 C 70 % 1002,1 hPa 0,0 l/m 0 min 0 min 0 W/m 9,7 km/h (2 Bft) 97,87 %
30.03.2022 20:38 9,3 C 8,3 C 5,0 C 70 % 1002,2 hPa 0,0 l/m 0 min 0 min 0 W/m 12,9 km/h (3 Bft) 95,74 %
30.03.2022 20:40 9,3 C 8,3 C 5,0 C 70 % 1002,1 hPa 0,0 l/m 0 min 0 min 0 W/m 9,7 km/h (2 Bft) 97,83 %
30.03.2022 20:42 9,3 C 8,3 C 5,0 C 70 % 1002,1 hPa 0,0 l/m 0 min 0 min 0 W/m 12,9 km/h (3 Bft) 98,18 %
30.03.2022 20:44 9,2 C 8,3 C 5,0 C 70 % 1002,2 hPa 0,0 l/m 0 min 0 min 0 W/m 16,1 km/h (3 Bft) 94,00 %
30.03.2022 20:46 9,2 C 8,3 C 5,0 C 70 % 1002,2 hPa 0,0 l/m 0 min 0 min 0 W/m 16,1 km/h (3 Bft) 94,44 %
30.03.2022 20:48 9,2 C 8,3 C 5,0 C 71 % 1002,2 hPa 0,0 l/m 0 min 0 min 0 W/m 16,1 km/h (3 Bft) 97,87 %
30.03.2022 20:50 9,1 C 8,3 C 5,0 C 71 % 1002,2 hPa 0,0 l/m 0 min 0 min 0 W/m 6,4 km/h (2 Bft) 92,73 %
30.03.2022 20:52 9,1 C 8,3 C 5,0 C 71 % 1002,2 hPa 0,0 l/m 0 min 0 min 0 W/m 12,9 km/h (3 Bft) 95,92 %
30.03.2022 20:54 9,1 C 8,3 C 5,0 C 71 % 1002,2 hPa 0,0 l/m 0 min 0 min 0 W/m 9,7 km/h (2 Bft) 94,44 %
30.03.2022 20:56 9,1 C 8,3 C 4,4 C 71 % 1002,2 hPa 0,0 l/m 0 min 0 min 0 W/m 9,7 km/h (2 Bft) 95,74 %
30.03.2022 20:58 9,1 C 8,3 C 4,4 C 71 % 1002,3 hPa 0,0 l/m 0 min 0 min 0 W/m 12,9 km/h (3 Bft) 95,74 %
30.03.2022 21:00 9,0 C 8,3 C 4,4 C 71 % 1002,2 hPa 0,0 l/m 0 min 0 min 0 W/m 16,1 km/h (3 Bft) 95,74 %
30.03.2022 21:02 8,9 C 8,3 C 4,4 C 72 % 1002,2 hPa 0,0 l/m 0 min 0 min 0 W/m 16,1 km/h (3 Bft) 92,73 %
30.03.2022 21:04 8,9 C 7,8 C 4,4 C 72 % 1002,2 hPa 0,0 l/m 0 min 0 min 0 W/m 12,9 km/h (3 Bft) 95,92 %
30.03.2022 21:06 8,9 C 7,8 C 4,4 C 72 % 1002,2 hPa 0,0 l/m 0 min 0 min 0 W/m 19,3 km/h (3 Bft) 94,44 %
30.03.2022 21:08 8,8 C 7,8 C 4,4 C 72 % 1002,2 hPa 0,0 l/m 0 min 0 min 0 W/m 12,9 km/h (3 Bft) 95,74 %
30.03.2022 21:10 8,8 C 7,8 C 4,4 C 72 % 1002,2 hPa 0,0 l/m 0 min 0 min 0 W/m 6,4 km/h (2 Bft) 93,62 %
30.03.2022 21:12 8,8 C 7,8 C 4,4 C 73 % 1002,2 hPa 0,0 l/m 0 min 0 min 0 W/m 12,9 km/h (3 Bft) 94,55 %
30.03.2022 21:14 8,7 C 7,8 C 4,4 C 72 % 1002,2 hPa 0,0 l/m 0 min 0 min 0 W/m 9,7 km/h (2 Bft) 93,62 %
30.03.2022 21:16 8,7 C 7,8 C 4,4 C 73 % 1002,2 hPa 0,0 l/m 0 min 0 min 0 W/m 12,9 km/h (3 Bft) 91,84 %
30.03.2022 21:18 8,7 C 7,8 C 4,4 C 73 % 1002,2 hPa 0,0 l/m 0 min 0 min 0 W/m 22,5 km/h (4 Bft) 91,67 %
30.03.2022 21:20 8,6 C 7,8 C 4,4 C 73 % 1002,2 hPa 0,0 l/m 0 min 0 min 0 W/m 6,4 km/h (2 Bft) 95,74 %
30.03.2022 21:22 8,6 C 7,8 C 4,4 C 73 % 1002,2 hPa 0,0 l/m 0 min 0 min 0 W/m 16,1 km/h (3 Bft) 98,18 %
30.03.2022 21:24 8,6 C 7,8 C 4,4 C 73 % 1002,2 hPa 0,0 l/m 0 min 0 min 0 W/m 12,9 km/h (3 Bft) 96,00 %
30.03.2022 21:26 8,5 C 7,8 C 4,4 C 73 % 1002,2 hPa 0,0 l/m 0 min 0 min 0 W/m 22,5 km/h (4 Bft) 97,22 %
30.03.2022 21:28 8,4 C 7,8 C 4,4 C 73 % 1002,3 hPa 0,0 l/m 0 min 0 min 0 W/m 9,7 km/h (2 Bft) 97,83 %
30.03.2022 21:30 8,4 C 7,8 C 4,4 C 73 % 1002,3 hPa 0,0 l/m 0 min 0 min 0 W/m 16,1 km/h (3 Bft) 96,36 %
30.03.2022 21:32 8,4 C 7,8 C 4,4 C 74 % 1002,2 hPa 0,0 l/m 0 min 0 min 0 W/m 16,1 km/h (3 Bft) 95,74 %
30.03.2022 21:34 8,3 C 7,8 C 3,9 C 74 % 1002,3 hPa 0,0 l/m 0 min 0 min 0 W/m 12,9 km/h (3 Bft) 95,74 %
30.03.2022 21:36 8,3 C 7,8 C 3,9 C 74 % 1002,3 hPa 0,0 l/m 0 min 0 min 0 W/m 12,9 km/h (3 Bft) 98,00 %
30.03.2022 21:38 8,3 C 7,8 C 3,9 C 74 % 1002,3 hPa 0,0 l/m 0 min 0 min 0 W/m 9,7 km/h (2 Bft) 97,87 %
30.03.2022 21:40 8,2 C 7,8 C 3,9 C 74 % 1002,3 hPa 0,0 l/m 0 min 0 min 0 W/m 9,7 km/h (2 Bft) 97,14 %
30.03.2022 21:42 8,2 C 7,2 C 3,9 C 74 % 1002,2 hPa 0,0 l/m 0 min 0 min 0 W/m 9,7 km/h (2 Bft) 97,87 %
30.03.2022 21:44 8,2 C 7,2 C 3,9 C 74 % 1002,2 hPa 0,0 l/m 0 min 0 min 0 W/m 12,9 km/h (3 Bft) 100,00 %
30.03.2022 21:46 8,1 C 7,2 C 3,9 C 74 % 1002,3 hPa 0,0 l/m 0 min 0 min 0 W/m 12,9 km/h (3 Bft) 100,00 %
30.03.2022 21:48 8,1 C 7,2 C 3,9 C 74 % 1002,3 hPa 0,0 l/m 0 min 0 min 0 W/m 6,4 km/h (2 Bft) 100,00 %
30.03.2022 21:50 8,1 C 7,2 C 3,9 C 75 % 1002,3 hPa 0,0 l/m 0 min 0 min 0 W/m 6,4 km/h (2 Bft) 97,14 %
30.03.2022 21:52 8,1 C 7,2 C 3,9 C 75 % 1002,3 hPa 0,0 l/m 0 min 0 min 0 W/m 16,1 km/h (3 Bft) 97,87 %
30.03.2022 21:54 8,1 C 7,2 C 3,9 C 75 % 1002,3 hPa 0,0 l/m 0 min 0 min 0 W/m 16,1 km/h (3 Bft) 100,00 %
30.03.2022 21:56 8,1 C 7,2 C 3,9 C 75 % 1002,3 hPa 0,0 l/m 0 min 0 min 0 W/m 12,9 km/h (3 Bft) 100,00 %
30.03.2022 21:58 8,1 C 7,2 C 3,9 C 75 % 1002,3 hPa 0,0 l/m 0 min 0 min 0 W/m 9,7 km/h (2 Bft) 100,00 %
30.03.2022 22:00 8,0 C 7,2 C 3,9 C 75 % 1002,2 hPa 0,0 l/m 0 min 0 min 0 W/m 12,9 km/h (3 Bft) 100,00 %
30.03.2022 22:02 8,0 C 7,2 C 3,9 C 75 % 1002,2 hPa 0,0 l/m 0 min 0 min 0 W/m 9,7 km/h (2 Bft) 100,00 %
30.03.2022 22:04 7,9 C 7,2 C 3,9 C 75 % 1002,3 hPa 0,0 l/m 0 min 0 min 0 W/m 6,4 km/h (2 Bft) 100,00 %
30.03.2022 22:06 7,9 C 7,2 C 3,9 C 76 % 1002,3 hPa 0,0 l/m 0 min 0 min 0 W/m 9,7 km/h (2 Bft) 100,00 %
30.03.2022 22:08 7,9 C 7,2 C 3,9 C 76 % 1002,3 hPa 0,0 l/m 0 min 0 min 0 W/m 16,1 km/h (3 Bft) 100,00 %
30.03.2022 22:10 7,9 C 7,2 C 3,9 C 76 % 1002,3 hPa 0,0 l/m 0 min 0 min 0 W/m 9,7 km/h (2 Bft) 100,00 %
30.03.2022 22:12 7,9 C 7,2 C 3,9 C 76 % 1002,3 hPa 0,0 l/m 0 min 0 min 0 W/m 9,7 km/h (2 Bft) 100,00 %
30.03.2022 22:14 7,9 C 7,2 C 3,9 C 76 % 1002,2 hPa 0,0 l/m 0 min 0 min 0 W/m 12,9 km/h (3 Bft) 100,00 %
30.03.2022 22:16 7,8 C 7,2 C 3,9 C 76 % 1002,3 hPa 0,0 l/m 0 min 0 min 0 W/m 12,9 km/h (3 Bft) 100,00 %
30.03.2022 22:18 7,8 C 7,2 C 3,9 C 76 % 1002,2 hPa 0,0 l/m 0 min 0 min 0 W/m 6,4 km/h (2 Bft) 100,00 %
30.03.2022 22:23 7,8 C 7,2 C 3,3 C 77 % 1002,3 hPa 0,0 l/m 0 min 0 min 0 W/m 9,7 km/h (2 Bft) 98,51 %
30.03.2022 22:24 7,8 C 7,2 C 3,3 C 77 % 1002,3 hPa 0,0 l/m 0 min 0 min 0 W/m 19,3 km/h (3 Bft) 100,00 %
30.03.2022 22:26 7,7 C 7,2 C 3,3 C 77 % 1002,3 hPa 0,0 l/m 0 min 0 min 0 W/m 9,7 km/h (2 Bft) 100,00 %
30.03.2022 22:28 7,7 C 7,2 C 3,3 C 77 % 1002,3 hPa 0,0 l/m 0 min 0 min 0 W/m 9,7 km/h (2 Bft) 100,00 %
30.03.2022 22:30 7,7 C 7,2 C 3,3 C 77 % 1002,2 hPa 0,0 l/m 0 min 0 min 0 W/m 12,9 km/h (3 Bft) 97,87 %
30.03.2022 22:32 7,7 C 7,2 C 3,3 C 77 % 1002,2 hPa 0,0 l/m 0 min 0 min 0 W/m 22,5 km/h (4 Bft) 100,00 %
30.03.2022 22:34 7,7 C 7,2 C 3,3 C 77 % 1002,2 hPa 0,0 l/m 0 min 0 min 0 W/m 9,7 km/h (2 Bft) 97,87 %
30.03.2022 22:36 7,7 C 7,2 C 3,3 C 77 % 1002,2 hPa 0,0 l/m 0 min 0 min 0 W/m 9,7 km/h (2 Bft) 97,87 %
30.03.2022 22:38 7,7 C 7,2 C 3,3 C 77 % 1002,3 hPa 0,0 l/m 0 min 0 min 0 W/m 12,9 km/h (3 Bft) 97,83 %
30.03.2022 22:40 7,6 C 7,2 C 3,3 C 77 % 1002,3 hPa 0,0 l/m 0 min 0 min 0 W/m 16,1 km/h (3 Bft) 97,87 %
30.03.2022 22:42 7,6 C 7,2 C 3,3 C 77 % 1002,2 hPa 0,0 l/m 0 min 0 min 0 W/m 16,1 km/h (3 Bft) 97,87 %
30.03.2022 22:44 7,6 C 7,2 C 3,3 C 77 % 1002,2 hPa 0,0 l/m 0 min 0 min 0 W/m 9,7 km/h (2 Bft) 95,74 %
30.03.2022 22:46 7,6 C 7,2 C 3,3 C 78 % 1002,2 hPa 0,0 l/m 0 min 0 min 0 W/m 6,4 km/h (2 Bft) 95,74 %
30.03.2022 22:48 7,6 C 7,2 C 3,3 C 78 % 1002,2 hPa 0,0 l/m 0 min 0 min 0 W/m 12,9 km/h (3 Bft) 95,74 %
30.03.2022 22:50 7,6 C 7,2 C 3,3 C 78 % 1002,1 hPa 0,0 l/m 0 min 0 min 0 W/m 9,7 km/h (2 Bft) 93,48 %
30.03.2022 22:52 7,6 C 7,2 C 3,3 C 78 % 1002,2 hPa 0,0 l/m 0 min 0 min 0 W/m 9,7 km/h (2 Bft) 97,87 %
30.03.2022 22:54 7,6 C 6,7 C 3,3 C 78 % 1002,2 hPa 0,0 l/m 0 min 0 min 0 W/m 12,9 km/h (3 Bft) 97,87 %
30.03.2022 22:56 7,6 C 7,2 C 3,3 C 78 % 1002,2 hPa 0,0 l/m 0 min 0 min 0 W/m 6,4 km/h (2 Bft) 95,74 %
30.03.2022 22:58 7,5 C 7,2 C 3,3 C 78 % 1002,2 hPa 0,0 l/m 0 min 0 min 0 W/m 9,7 km/h (2 Bft) 95,74 %
30.03.2022 23:00 7,5 C 6,7 C 3,3 C 78 % 1002,2 hPa 0,0 l/m 0 min 0 min 0 W/m 9,7 km/h (2 Bft) 97,83 %
30.03.2022 23:02 7,5 C 6,7 C 3,3 C 78 % 1002,2 hPa 0,0 l/m 0 min 0 min 0 W/m 9,7 km/h (2 Bft) 97,87 %
30.03.2022 23:04 7,5 C 6,7 C 3,3 C 78 % 1002,2 hPa 0,0 l/m 0 min 0 min 0 W/m 9,7 km/h (2 Bft) 100,00 %
30.03.2022 23:06 7,5 C 6,7 C 3,3 C 78 % 1002,2 hPa 0,0 l/m 0 min 0 min 0 W/m 6,4 km/h (2 Bft) 100,00 %
30.03.2022 23:08 7,4 C 6,7 C 3,3 C 78 % 1002,1 hPa 0,0 l/m 0 min 0 min 0 W/m 9,7 km/h (2 Bft) 100,00 %
30.03.2022 23:10 7,4 C 6,7 C 3,3 C 78 % 1002,1 hPa 0,0 l/m 0 min 0 min 0 W/m 12,9 km/h (3 Bft) 97,87 %
30.03.2022 23:12 7,4 C 6,7 C 3,3 C 78 % 1002,1 hPa 0,0 l/m 0 min 0 min 0 W/m 9,7 km/h (2 Bft) 97,83 %
30.03.2022 23:14 7,4 C 6,7 C 3,3 C 78 % 1002,1 hPa 0,0 l/m 0 min 0 min 0 W/m 6,4 km/h (2 Bft) 100,00 %
30.03.2022 23:16 7,4 C 6,7 C 3,3 C 78 % 1002,1 hPa 0,0 l/m 0 min 0 min 0 W/m 9,7 km/h (2 Bft) 100,00 %
30.03.2022 23:18 7,4 C 6,7 C 3,3 C 78 % 1002,1 hPa 0,0 l/m 0 min 0 min 0 W/m 6,4 km/h (2 Bft) 97,87 %
30.03.2022 23:20 7,4 C 6,7 C 3,3 C 79 % 1002,1 hPa 0,0 l/m 0 min 0 min 0 W/m 9,7 km/h (2 Bft) 100,00 %
30.03.2022 23:22 7,4 C 6,7 C 3,3 C 78 % 1002,1 hPa 0,0 l/m 0 min 0 min 0 W/m 9,7 km/h (2 Bft) 97,87 %
30.03.2022 23:24 7,4 C 6,7 C 3,3 C 79 % 1002,1 hPa 0,0 l/m 0 min 0 min 0 W/m 16,1 km/h (3 Bft) 97,83 %
30.03.2022 23:26 7,4 C 6,7 C 3,3 C 78 % 1002,1 hPa 0,0 l/m 0 min 0 min 0 W/m 9,7 km/h (2 Bft) 97,87 %
30.03.2022 23:28 7,4 C 6,7 C 3,3 C 79 % 1002,1 hPa 0,0 l/m 0 min 0 min 0 W/m 9,7 km/h (2 Bft) 97,87 %
30.03.2022 23:30 7,4 C 6,7 C 3,3 C 79 % 1002,0 hPa 0,0 l/m 0 min 0 min 0 W/m 9,7 km/h (2 Bft) 95,74 %
30.03.2022 23:32 7,4 C 6,7 C 3,3 C 79 % 1002,0 hPa 0,0 l/m 0 min 0 min 0 W/m 9,7 km/h (2 Bft) 97,87 %
30.03.2022 23:34 7,3 C 6,7 C 3,3 C 79 % 1002,0 hPa 0,0 l/m 0 min 0 min 0 W/m 6,4 km/h (2 Bft) 97,87 %
30.03.2022 23:36 7,3 C 6,7 C 3,3 C 79 % 1002,0 hPa 0,0 l/m 0 min 0 min 0 W/m 19,3 km/h (3 Bft) 95,65 %
30.03.2022 23:38 7,3 C 6,7 C 3,3 C 79 % 1002,0 hPa 0,0 l/m 0 min 0 min 0 W/m 9,7 km/h (2 Bft) 95,74 %
30.03.2022 23:40 7,3 C 6,7 C 3,3 C 79 % 1002,0 hPa 0,0 l/m 0 min 0 min 0 W/m 9,7 km/h (2 Bft) 97,87 %
30.03.2022 23:42 7,3 C 6,7 C 3,3 C 79 % 1002,0 hPa 0,0 l/m 0 min 0 min 0 W/m 6,4 km/h (2 Bft) 95,74 %
30.03.2022 23:44 7,3 C 6,7 C 3,3 C 79 % 1001,9 hPa 0,0 l/m 0 min 0 min 0 W/m 12,9 km/h (3 Bft) 95,74 %
30.03.2022 23:46 7,3 C 6,7 C 3,3 C 79 % 1001,9 hPa 0,0 l/m 0 min 0 min 0 W/m 9,7 km/h (2 Bft) 95,74 %
30.03.2022 23:48 7,3 C 6,7 C 3,3 C 78 % 1001,9 hPa 0,0 l/m 0 min 0 min 0 W/m 9,7 km/h (2 Bft) 93,48 %
30.03.2022 23:50 7,3 C 6,7 C 3,3 C 79 % 1001,9 hPa 0,0 l/m 0 min 0 min 0 W/m 9,7 km/h (2 Bft) 95,74 %
30.03.2022 23:52 7,3 C 6,7 C 3,3 C 79 % 1001,9 hPa 0,0 l/m 0 min 0 min 0 W/m 12,9 km/h (3 Bft) 95,74 %
30.03.2022 23:54 7,3 C 6,7 C 3,3 C 79 % 1001,9 hPa 0,0 l/m 0 min 0 min 0 W/m 12,9 km/h (3 Bft) 93,62 %
30.03.2022 23:56 7,3 C 6,7 C 3,3 C 79 % 1001,9 hPa 0,0 l/m 0 min 0 min 0 W/m 9,7 km/h (2 Bft) 95,74 %
30.03.2022 23:58 7,3 C 6,7 C 3,3 C 79 % 1001,9 hPa 0,0 l/m 0 min 0 min 0 W/m 12,9 km/h (3 Bft) 95,65 %
_ Min-Zeit 08:14 06:46 07:02 14:28 17:44 - - - - 06:54 05:36
Minimum _ 4,9 C 4,4 C 1,1 C 56 % 1001,8 hPa - - - - 0,0 km/h (0 Bft) 52,63 %
_ Max-Zeit 15:14 14:26 12:42 08:34 00:00 00:00 12:08 00:00 14:24 15:28 00:30
Maximum _ 14,8 C 23,9 C 15,0 C 88 % 1008,2 hPa 0,0 l/m 4 min 0 min 770 W/m 29,0 km/h
N-NW (5 Bft)
100,00 %
Durchschnitt _ 9,5 C 10,5 C 5,9 C 72 % 1004,5 hPa #0,0 l/m #7:34 h #0 min. 338 W/m 11,4 km/h (2 Bft) 97,54 %
© 2022 W. Hausmann